GFSFLT2_sfc_thetae_003.txt.gz
Theta_e
336 337 339 341 340 341 341 340 340 339 338 338 337 336 334 332 332 331 330 329 328 327 326 326 327 328 329 329 330 332 333 332
337 337 337 339 339 338 338 339 339 337 336 335 335 335 333 330 330 330 328 327 327 325 325 324 324 326 326 326 327 330 332 330
337 337 337 336 335 335 335 336 337 336 336 335 334 337 336 333 330 329 328 327 325 323 322 321 322 324 325 325 326 328 328 328
339 339 338 336 330 334 333 332 336 337 337 337 335 336 335 332 332 331 330 328 327 325 325 325 325 324 324 325 325 325 324 326
337 342 340 335 332 334 333 333 334 336 338 338 337 335 335 333 333 332 334 330 329 327 328 327 327 324 322 322 322 323 321 321
337 341 339 337 335 333 333 332 332 332 334 335 335 332 332 332 329 328 328 326 327 327 326 327 325 319 318 318 319 317 315 316
335 340 336 334 335 336 336 335 333 332 333 332 332 330 331 328 327 324 324 324 324 324 324 323 320 317 315 316 316 316 316 316
336 338 336 331 332 335 336 333 331 330 329 328 330 330 330 326 324 323 322 323 323 323 323 322 319 317 316 316 316 315 315 317
335 338 334 329 330 331 330 326 326 327 327 327 327 327 327 327 324 323 323 325 326 324 323 323 321 318 316 315 315 316 315 315
334 335 330 328 329 327 328 327 327 326 326 327 326 326 327 327 323 323 325 325 323 323 321 320 319 318 318 315 315 315 315 314
331 334 326 326 328 327 327 327 325 323 323 323 324 323 324 324 323 324 329 325 326 325 323 323 320 319 318 318 316 315 316 313
330 331 324 325 327 327 323 323 322 322 321 321 322 322 323 323 322 325 325 323 324 324 326 323 323 321 317 316 319 317 317 317
328 326 326 324 322 319 318 317 318 320 320 321 321 321 319 319 318 320 321 320 323 324 322 321 320 322 320 318 319 319 318 316
326 323 320 319 320 318 319 318 318 318 319 318 318 318 317 316 316 315 317 315 319 320 321 318 318 320 316 315 309 312 316 316
320 319 318 318 318 317 317 317 317 315 315 315 316 317 314 314 314 314 316 316 314 317 316 316 312 315 318 312 305 304 310 315
318 317 316 315 316 315 314 312 310 313 314 314 313 314 312 311 311 312 314 314 314 314 311 314 312 308 312 310 313 309 305 304
318 317 315 315 314 314 313 313 314 314 314 313 312 312 311 310 310 310 311 310 311 312 311 308 307 307 305 306 306 306 306 302
317 315 313 314 313 314 314 312 311 309 309 307 307 308 308 309 307 309 310 310 308 307 307 307 304 304 302 301 299 297 296 296
314 313 313 315 315 313 311 310 310 309 308 307 305 304 305 306 307 307 306 306 306 307 305 302 299 296 297 298 298 296 295 294
315 314 312 313 313 312 312 311 310 308 307 305 304 304 305 306 305 306 305 305 304 304 302 302 300 299 297 296 296 296 296 294

GFSFLT2_sfc_thetae_006.txt.gz
Theta_e
334 336 339 340 339 340 340 340 340 339 338 338 337 336 335 333 332 331 329 328 328 327 326 325 325 327 328 329 329 330 328 328
334 335 335 335 336 338 339 339 338 337 337 336 336 335 334 333 332 330 328 326 325 324 323 323 324 324 327 328 327 327 323 326
334 334 335 338 335 335 337 338 338 337 336 335 333 334 333 331 330 331 329 327 326 325 324 323 324 325 327 327 327 320 323 321
337 336 335 333 330 333 336 335 336 336 335 335 335 334 333 331 332 331 331 330 329 328 327 327 326 322 320 325 321 321 319 318
337 339 337 335 332 333 332 332 333 336 337 334 334 332 333 332 332 330 329 329 329 326 325 323 324 320 317 317 317 317 316 317
337 338 337 335 335 332 333 332 331 331 332 333 332 330 330 327 326 323 322 322 322 323 321 323 322 319 315 314 314 314 311 311
334 336 336 337 333 336 335 333 332 331 332 331 330 328 327 326 324 322 321 321 320 319 318 319 318 316 314 312 313 313 312 312
336 336 335 333 333 333 334 332 332 332 328 326 327 327 326 324 322 322 320 320 319 318 317 318 318 316 314 313 312 312 311 312
334 335 330 330 331 332 331 325 323 325 325 325 324 325 324 324 322 322 322 322 321 320 320 318 317 318 315 314 313 313 312 311
331 335 331 329 331 326 326 327 326 324 326 325 325 325 324 323 322 322 322 323 320 319 318 316 315 315 314 314 311 311 311 311
332 330 328 327 327 326 326 325 324 323 321 322 322 321 324 321 320 321 322 320 319 319 317 316 315 314 315 313 313 311 310 312
331 326 322 325 326 325 322 321 321 322 321 320 321 320 320 319 318 319 321 318 316 316 317 315 314 314 315 315 314 314 313 310
325 326 326 324 323 319 317 316 317 318 318 319 318 318 317 315 314 315 314 313 313 313 311 310 310 312 311 310 310 312 313 313
324 323 320 318 317 318 317 317 316 317 318 316 317 316 315 312 313 312 311 310 309 310 310 308 307 308 306 306 301 304 308 309
317 316 315 316 318 315 314 314 313 312 312 313 314 314 313 312 311 312 311 308 306 306 307 305 303 304 305 302 298 296 301 305
316 316 315 315 316 314 312 310 310 313 314 313 313 312 311 309 309 309 308 307 305 306 306 305 303 300 302 304 300 298 295 295
318 316 315 315 314 313 312 313 312 312 311 310 309 309 308 308 306 305 306 305 305 305 303 302 302 299 298 296 295 295 296 292
316 314 313 314 314 315 312 309 309 308 307 306 304 304 304 305 306 305 305 304 303 303 301 300 297 297 297 296 294 293 292 291
315 315 313 314 313 311 311 310 309 307 305 303 302 301 302 302 303 303 303 302 303 303 302 300 298 295 294 294 294 293 293 292
315 313 312 312 313 312 311 309 306 305 304 302 301 301 301 302 302 302 301 300 299 299 297 298 296 296 296 296 293 293 293 293

GFSFLT2_sfc_thetae_009.txt.gz
Theta_e
334 337 339 338 337 337 338 338 338 338 338 338 337 336 335 334 333 330 329 327 325 325 325 325 325 327 328 328 327 328 322 323
330 331 333 332 334 336 336 336 336 335 336 336 335 334 333 334 333 332 329 327 325 324 325 326 325 326 326 327 327 327 317 321
328 328 329 330 331 335 336 337 336 334 335 334 332 330 330 330 330 330 330 329 328 327 327 326 325 325 326 326 327 320 318 319
326 326 330 328 330 331 330 332 333 332 331 331 329 328 329 329 329 330 330 330 329 329 329 327 326 321 316 323 319 318 314 314
329 326 325 323 327 328 328 328 329 329 329 326 327 325 327 325 325 326 323 328 324 326 324 323 321 319 315 311 312 311 310 309
329 328 325 325 321 323 321 324 323 328 326 327 324 322 319 320 318 318 319 322 321 320 317 318 318 319 314 310 310 309 310 308
329 327 325 325 325 325 324 324 323 322 324 323 321 321 318 318 317 316 315 315 314 313 313 314 315 314 312 310 309 310 310 309
328 326 327 327 325 325 324 322 321 323 319 320 321 319 317 317 315 317 315 315 315 314 313 313 313 314 313 311 309 308 309 309
328 331 331 325 325 324 323 315 317 317 318 318 319 318 316 317 316 316 317 317 316 314 315 314 313 314 313 312 311 309 309 309
326 329 329 325 323 321 319 318 317 316 317 317 318 318 317 315 314 314 316 316 316 314 314 313 312 311 311 311 311 310 309 309
320 321 327 323 319 319 318 316 315 314 314 314 314 317 315 312 312 312 313 314 314 313 313 312 311 310 310 310 309 309 309 310
320 324 321 319 320 317 314 313 313 313 312 312 313 312 312 310 309 310 310 309 308 308 307 308 307 307 310 310 308 309 310 308
320 319 318 317 312 311 310 309 310 310 310 312 311 310 310 309 307 308 307 306 305 305 305 304 304 305 303 303 304 305 304 305
313 312 312 311 310 310 310 310 309 308 309 310 311 310 309 309 306 306 306 304 303 302 302 301 301 302 299 298 295 299 301 303
309 308 309 310 310 308 307 306 306 307 308 309 310 310 307 305 304 303 303 303 301 300 301 300 298 299 299 297 292 291 293 298
308 309 308 310 309 307 305 304 304 307 307 306 307 305 304 304 303 302 302 301 300 300 303 299 298 296 297 299 295 294 291 288
307 308 308 309 307 306 306 305 305 305 305 301 300 301 302 302 302 301 300 301 300 299 298 297 296 295 294 294 293 292 293 290
307 307 307 308 307 308 305 303 303 301 300 298 299 299 300 300 301 300 300 299 298 298 298 295 294 297 297 296 295 290 289 287
307 307 307 308 306 305 303 301 300 299 298 297 298 300 297 297 298 297 297 297 297 296 295 295 294 293 291 291 292 291 291 290
307 307 307 307 306 303 302 301 300 302 301 300 298 296 296 296 297 297 297 296 295 294 293 293 295 294 293 293 292 293 291 291

GFSFLT2_sfc_thetae_012.txt.gz
Theta_e
335 338 339 338 337 337 338 339 339 339 339 338 336 335 335 334 332 330 328 326 325 324 326 326 326 326 326 326 326 328 316 318
329 331 332 331 333 335 335 335 335 336 336 335 333 333 334 334 333 332 330 327 327 327 327 327 326 326 327 327 326 324 316 317
326 328 328 329 329 333 335 335 334 334 334 333 331 329 327 329 330 329 331 329 329 329 329 328 326 326 326 326 326 317 315 314
325 325 326 327 331 330 329 331 330 329 330 329 328 327 326 327 329 330 331 329 330 330 330 329 327 320 318 318 313 313 310 311
326 327 326 324 325 326 326 327 327 328 328 328 326 326 325 326 323 324 322 325 323 324 323 321 320 319 317 311 309 308 308 308
325 327 326 321 324 325 325 325 326 326 326 325 321 320 317 317 318 318 317 316 319 318 317 315 315 316 316 312 309 307 308 308
324 323 322 322 322 324 323 322 323 324 323 322 320 319 315 315 315 314 313 313 312 311 311 311 312 313 313 311 309 307 308 308
327 327 326 324 324 323 322 321 319 322 319 319 320 319 315 315 314 314 314 314 314 313 312 311 312 313 313 313 311 308 307 307
326 326 326 324 324 324 321 316 319 317 315 316 317 316 314 314 313 311 312 313 313 313 312 312 311 312 310 311 311 311 309 307
325 327 326 322 321 320 318 314 315 314 315 315 316 316 314 311 308 308 310 310 310 309 310 309 308 307 307 308 308 309 309 308
323 324 323 321 319 317 315 313 313 311 311 312 312 312 311 308 307 307 308 307 306 307 305 305 304 303 305 304 305 306 307 310
321 322 323 319 315 314 312 310 309 309 309 309 310 311 311 307 306 306 307 305 303 303 302 302 302 302 304 304 302 304 304 303
316 316 314 317 311 310 308 306 307 307 310 312 311 310 309 306 305 305 305 303 301 301 300 300 300 300 298 299 299 300 300 299
313 309 309 308 310 309 309 307 309 310 310 310 308 306 305 305 303 301 302 301 299 299 299 299 299 299 296 295 293 296 296 298
307 306 307 307 309 308 307 308 308 307 307 305 304 304 303 302 301 300 300 300 298 298 299 298 296 297 297 295 291 288 291 295
305 306 306 307 307 306 306 305 304 305 303 301 300 301 301 301 300 299 299 299 297 298 300 297 296 294 295 298 294 294 291 288
304 306 306 307 306 306 306 303 301 302 299 298 298 300 301 301 301 299 298 298 296 295 296 294 294 293 293 293 292 291 291 289
303 306 306 306 305 305 302 300 299 298 297 298 300 300 298 299 299 296 296 295 295 294 293 293 294 295 294 293 291 290 288 287
306 305 304 304 302 300 300 299 298 300 299 299 297 298 297 297 295 295 294 295 294 293 292 292 293 294 294 293 294 293 291 292
304 303 301 301 300 299 299 299 301 301 299 299 297 295 294 295 294 294 294 294 293 292 291 290 291 290 289 289 292 292 293 292

GFSFLT2_sfc_thetae_015.txt.gz
Theta_e
338 339 340 339 338 338 337 338 338 339 338 337 336 335 334 333 331 329 327 326 327 327 328 327 328 328 328 328 326 327 314 316
330 331 331 330 331 335 336 336 336 337 336 335 332 332 333 333 332 331 330 328 328 329 328 328 328 328 328 327 326 322 313 312
326 327 327 327 328 332 335 335 334 334 334 333 329 326 325 327 330 330 331 329 329 330 330 329 328 326 327 325 321 312 310 309
325 326 326 326 331 329 328 330 329 328 328 328 327 325 324 326 328 329 330 330 330 330 330 330 328 319 318 320 310 309 307 308
324 323 324 324 325 326 325 326 326 327 327 326 325 326 324 324 322 321 320 324 320 322 320 320 318 317 317 315 311 308 306 307
324 324 322 322 322 323 323 325 325 326 326 325 321 318 316 318 318 314 313 312 312 313 312 312 310 312 314 314 311 308 306 307
324 325 321 321 322 322 323 323 325 325 324 323 319 316 314 314 312 313 312 312 312 311 311 311 311 312 312 311 311 309 307 306
323 322 321 321 321 322 321 321 322 323 321 319 319 316 314 313 312 312 310 311 311 310 310 309 309 309 309 309 309 310 308 307
323 323 322 321 321 321 320 317 319 319 316 316 316 315 313 312 309 307 308 309 308 308 307 306 305 306 305 307 308 307 308 308
324 328 322 322 321 321 318 313 312 312 313 313 313 313 310 307 306 305 306 307 306 305 305 302 302 302 302 302 303 305 305 306
322 324 323 320 321 319 315 311 310 310 310 309 309 309 309 306 305 305 306 304 303 303 301 301 300 300 301 300 300 300 302 305
322 322 322 318 317 313 312 308 308 307 307 307 308 308 309 306 306 304 304 302 300 299 299 299 299 299 302 300 298 300 299 298
319 317 317 313 310 309 309 308 308 308 309 310 307 307 305 302 302 302 301 299 298 298 298 298 298 298 296 297 297 297 297 296
310 310 309 309 310 310 311 308 307 310 309 304 303 302 302 301 299 299 299 299 298 297 297 296 297 297 295 293 290 294 294 296
306 305 306 308 310 308 307 308 307 305 303 300 300 301 300 300 299 298 298 298 296 296 296 295 294 295 295 293 289 287 289 293
303 305 305 305 305 304 304 303 303 302 300 297 298 299 299 300 299 298 297 296 295 296 296 293 292 291 293 296 292 293 290 287
302 304 305 304 304 304 303 301 301 299 297 296 298 299 300 298 299 298 297 295 294 293 292 292 292 291 293 293 293 292 290 288
302 303 303 302 301 300 299 298 297 296 297 298 300 298 297 300 298 295 295 294 292 292 291 290 290 291 292 293 291 290 289 288
301 301 300 300 299 298 298 298 297 297 297 298 298 296 295 294 294 293 292 293 293 292 290 289 289 288 288 288 289 289 289 290
299 299 298 299 299 298 298 298 299 298 297 297 296 294 294 294 293 292 292 292 292 291 290 289 288 287 286 286 287 288 289 290

GFSFLT2_sfc_thetae_018.txt.gz
Theta_e
341 339 341 340 339 339 338 339 339 338 338 337 336 334 333 333 332 330 329 330 331 331 330 330 330 330 330 327 326 324 312 314
336 336 334 332 333 336 336 336 336 336 336 335 333 332 332 332 330 331 330 330 330 330 331 331 330 329 328 327 323 318 310 310
328 328 327 327 327 332 335 335 335 334 334 333 328 324 325 326 330 330 331 331 331 331 331 330 330 326 325 327 320 309 308 308
324 324 324 324 330 327 326 329 328 328 328 327 325 324 323 325 327 329 330 329 328 328 327 327 322 318 317 320 314 311 308 307
324 324 323 323 324 324 323 325 325 325 325 325 324 324 323 323 321 319 318 320 315 318 316 315 313 313 314 315 314 312 309 308
323 322 322 322 322 323 322 323 324 324 325 325 322 319 318 318 315 311 311 311 312 311 311 311 311 312 312 311 311 310 309 308
321 322 320 321 321 321 321 322 324 324 324 322 319 314 313 312 311 311 311 311 310 309 310 309 308 308 308 308 309 309 309 308
322 322 320 320 320 322 320 321 321 323 320 317 317 314 312 312 309 308 308 308 308 308 307 306 305 305 304 306 306 306 307 308
322 322 321 320 319 319 319 320 320 317 314 315 315 314 311 307 305 305 306 306 305 305 305 303 302 303 302 303 303 304 304 305
324 323 320 320 319 320 321 316 313 315 312 312 310 309 307 305 305 304 305 305 305 302 302 300 300 300 300 300 300 301 302 304
322 321 321 321 321 320 315 312 309 307 307 309 309 308 308 306 306 306 306 303 300 300 299 299 298 298 300 300 299 298 300 302
322 321 321 319 317 313 309 310 308 310 311 309 306 307 308 306 305 303 300 299 298 298 297 298 298 298 300 300 298 298 299 298
321 319 319 317 309 308 307 307 310 308 304 305 306 304 301 300 299 299 299 297 297 297 297 297 297 297 295 296 296 296 297 296
315 316 312 309 309 308 309 307 305 306 303 301 301 300 300 300 298 297 297 297 296 296 296 295 295 296 294 293 289 292 295 296
306 306 306 308 309 305 304 304 304 302 299 297 298 299 299 298 297 297 296 296 296 295 294 293 292 293 293 292 288 286 290 293
302 303 303 304 303 303 302 301 300 299 296 296 296 298 298 298 299 297 297 296 294 295 294 292 291 289 291 295 292 292 288 286
302 303 303 302 302 302 300 298 297 296 295 296 296 297 300 300 298 296 295 294 293 292 290 290 290 289 290 290 290 290 290 289
302 300 299 299 299 299 298 296 296 295 295 296 297 296 296 296 296 294 293 292 291 291 290 289 288 289 289 289 288 287 286 286
299 298 298 298 298 298 298 297 296 295 295 295 295 295 294 293 293 293 291 292 292 291 289 288 287 287 286 286 287 287 288 287
297 298 297 298 298 297 296 296 296 296 296 295 295 294 293 293 292 292 291 291 291 291 290 290 289 288 286 286 285 286 287 287

GFSFLT2_sfc_thetae_021.txt.gz
Theta_e
344 345 344 341 340 340 338 339 339 338 338 337 335 334 333 333 332 331 331 333 332 332 331 332 331 330 329 328 323 321 320 319
340 343 343 344 343 337 337 337 336 336 336 334 332 332 332 332 329 332 332 332 331 332 332 331 331 329 328 327 323 320 320 319
337 338 341 340 340 338 336 336 335 335 335 332 330 332 332 331 330 331 331 331 331 331 330 329 326 325 325 326 324 325 323 321
335 337 336 335 333 336 335 334 334 334 334 334 333 333 333 331 330 328 328 327 326 327 326 324 324 324 325 325 324 324 323 322
335 334 333 332 331 333 332 333 333 334 333 334 334 334 334 334 333 328 327 322 324 324 323 322 322 322 321 321 320 320 320 319
331 331 331 330 330 330 330 331 332 333 334 334 335 333 332 331 324 324 324 323 322 322 322 321 319 317 317 317 318 316 317 317
328 328 328 328 328 329 329 330 331 332 332 332 331 328 326 324 323 321 320 320 319 319 318 316 315 314 314 313 312 313 313 312
328 327 327 327 328 327 327 329 328 329 328 327 327 326 324 322 318 317 318 317 317 316 315 313 312 312 311 311 310 310 310 312
328 327 328 326 325 327 324 320 320 321 323 323 323 323 319 317 317 317 316 316 315 315 312 311 310 309 309 309 308 309 308 310
328 326 326 325 326 326 324 320 319 318 319 318 317 316 317 317 314 314 313 311 311 309 309 308 307 307 306 306 308 307 308 309
325 327 327 326 323 322 319 316 313 313 315 316 316 315 315 313 309 310 310 309 308 307 307 307 305 305 304 305 306 304 306 308
326 326 322 322 318 316 314 314 314 315 314 311 312 311 311 311 309 309 308 307 307 307 306 306 305 304 302 302 303 304 307 308
324 322 321 317 313 313 314 314 314 309 309 309 309 308 308 309 307 307 307 307 306 306 305 303 302 304 299 299 300 304 306 304
324 323 323 316 316 317 319 317 314 309 308 307 307 308 307 306 307 307 307 306 306 304 303 301 301 302 297 296 293 296 303 301
321 317 316 316 317 315 313 314 312 309 306 305 306 306 306 306 306 306 305 305 303 302 301 299 296 298 299 295 291 289 293 297
314 313 312 311 311 313 312 310 309 306 306 306 306 306 305 305 305 305 304 303 302 301 299 298 296 292 295 297 296 294 289 287
310 309 309 309 310 310 308 306 306 306 306 304 305 306 305 305 305 303 302 302 301 299 298 297 297 294 293 292 292 292 292 289
308 307 306 308 308 308 307 306 305 305 305 305 305 306 306 305 303 302 302 300 299 299 298 296 296 295 294 293 291 289 288 288
306 306 305 307 307 306 306 305 305 304 304 304 304 304 304 304 303 300 299 299 298 298 297 296 295 294 294 293 293 292 292 291
306 306 305 305 305 305 305 305 305 305 305 304 303 302 302 302 302 299 298 298 298 298 297 297 296 295 294 293 292 293 293 292

GFSFLT2_sfc_thetae_024.txt.gz
Theta_e
344 343 342 341 340 339 339 339 340 339 338 337 335 335 335 334 332 332 332 332 332 332 332 332 331 330 329 327 322 322 324 323
345 345 344 344 344 338 338 337 337 337 336 334 333 333 333 331 333 333 332 332 332 332 332 330 328 328 328 327 325 324 325 324
342 342 342 343 341 340 336 336 336 335 334 333 330 336 335 333 330 331 331 330 330 330 329 326 326 327 327 326 327 323 324 323
338 342 342 341 335 336 334 332 334 337 336 336 338 339 338 334 332 328 326 325 326 325 324 325 326 324 323 326 322 323 322 322
337 340 340 335 333 332 331 333 337 338 339 340 340 340 341 339 334 331 333 325 330 328 328 324 324 323 321 322 321 320 320 320
336 336 335 334 331 330 332 335 338 339 339 340 341 338 340 338 331 332 332 330 329 327 325 324 322 320 319 319 318 317 316 316
332 332 332 332 332 333 335 336 336 337 338 338 336 334 335 332 332 330 328 327 325 324 323 321 319 318 318 316 315 315 315 314
331 330 331 333 334 335 335 333 331 330 332 331 330 329 331 331 329 327 326 324 323 321 319 317 316 316 315 315 314 314 314 314
332 332 333 333 333 332 330 328 326 326 328 328 326 326 326 327 325 325 323 322 320 318 317 316 315 314 313 313 313 314 313 313
333 331 330 333 331 329 326 325 326 324 325 323 320 320 322 323 320 318 318 316 315 314 314 312 312 312 312 312 311 313 312 312
332 333 330 327 324 326 327 322 320 318 319 319 317 317 318 317 316 316 316 314 313 312 312 312 311 311 310 309 309 309 308 306
331 330 327 327 325 326 319 317 316 319 318 317 317 317 316 317 316 314 314 313 313 313 312 311 309 308 305 303 305 305 306 307
330 328 330 329 326 322 319 318 318 316 316 315 315 314 314 314 314 314 314 312 311 310 308 307 305 306 303 302 302 304 307 307
329 330 331 329 325 323 322 321 320 317 315 315 314 313 313 312 312 311 311 308 308 308 307 305 304 304 300 298 295 298 301 303
330 329 328 323 323 323 322 320 316 315 315 315 313 313 312 311 310 309 308 307 305 307 305 303 300 300 300 297 293 292 295 298
325 322 321 321 320 318 317 317 315 314 314 313 313 312 310 308 309 309 309 307 306 305 302 302 300 297 298 298 298 296 291 290
320 319 317 318 318 318 315 313 312 311 312 309 310 310 310 309 309 309 309 307 305 303 301 300 299 297 297 295 295 295 294 291
317 316 315 315 315 313 312 309 307 307 307 306 306 307 307 308 308 308 308 306 303 302 302 301 299 298 296 295 293 291 290 290
315 314 312 313 311 309 308 307 307 304 305 305 305 303 303 303 304 304 305 305 303 303 301 300 299 297 296 295 295 293 293 291
313 313 310 308 307 307 307 306 307 306 304 302 301 301 300 301 302 303 304 304 303 302 301 299 298 296 296 296 294 293 293 292

GFSFLT2_sfc_thetae_027.txt.gz
Theta_e
341 341 341 340 339 339 339 340 339 339 338 336 335 335 335 333 332 332 332 333 333 333 332 331 329 329 329 328 327 328 325 324
341 342 342 342 341 337 337 337 337 337 335 334 334 334 333 333 334 333 332 332 332 332 331 329 327 329 329 327 329 329 323 323
340 339 340 340 338 337 336 337 336 335 333 332 330 333 333 333 331 331 329 327 329 328 327 327 328 328 328 327 327 322 322 321
339 340 341 339 333 333 331 331 333 334 334 334 335 336 336 332 331 329 325 325 327 326 326 328 327 324 324 327 322 322 320 320
337 339 338 335 333 330 329 331 334 336 338 338 338 337 337 335 333 329 331 327 329 327 326 325 325 323 322 322 320 320 318 318
337 336 335 333 329 328 330 333 335 337 339 339 337 335 337 334 329 328 329 328 327 326 325 325 324 322 321 320 319 317 317 316
332 333 332 330 331 332 335 336 339 338 338 338 337 334 335 331 331 328 327 326 326 325 324 323 321 320 319 318 317 317 317 316
331 329 330 332 334 335 336 334 332 331 332 333 335 331 333 328 326 323 326 325 325 323 321 319 318 318 316 317 315 315 315 316
330 331 334 335 333 332 331 330 327 327 329 331 331 328 328 324 322 323 324 321 321 320 319 317 315 315 314 314 314 314 313 314
332 331 333 334 330 326 325 326 328 327 327 326 322 321 321 322 320 318 318 318 317 316 315 314 314 313 313 313 312 310 310 311
332 332 332 328 326 326 327 328 326 321 320 321 319 319 320 319 318 318 318 316 316 315 315 314 312 311 309 308 308 306 307 306
332 331 330 329 329 326 327 322 321 321 320 319 320 320 319 320 318 317 317 315 315 314 313 311 309 307 304 304 307 305 306 306
332 330 329 330 328 325 324 321 321 321 321 319 319 318 317 317 317 316 315 313 312 312 310 307 305 306 303 302 302 305 306 305
331 329 330 331 328 328 326 323 322 320 319 318 317 316 315 314 314 313 312 309 308 307 307 304 304 304 299 298 294 297 301 303
329 329 330 329 326 324 324 323 319 317 317 317 315 315 313 312 311 310 309 308 306 306 306 304 300 302 303 298 292 291 294 298
329 328 327 324 324 322 320 317 315 317 317 316 315 313 311 310 309 309 309 308 307 306 305 303 302 298 300 300 299 296 291 289
328 325 322 322 321 321 320 317 316 315 314 310 310 311 310 309 309 309 308 307 307 305 304 303 302 299 297 297 296 295 295 291
323 320 319 320 319 318 316 313 309 308 307 306 307 307 307 306 305 305 305 305 305 304 304 303 301 299 299 296 294 292 291 290
319 317 316 317 315 312 310 308 308 306 306 306 303 302 302 303 303 302 302 303 304 305 303 302 300 299 298 296 295 294 294 292
316 316 315 313 311 309 309 307 306 306 305 304 303 301 301 302 302 301 301 302 303 304 302 300 301 300 298 297 296 295 295 293

GFSFLT2_sfc_thetae_030.txt.gz
Theta_e
337 338 340 339 338 338 338 338 337 337 336 336 336 335 335 336 336 335 335 334 334 333 332 330 330 330 329 329 328 329 321 321
336 337 339 337 335 336 336 336 335 334 334 334 333 333 333 334 334 334 333 332 332 331 331 329 330 328 328 326 327 327 316 318
335 336 337 335 334 335 336 336 334 333 332 333 330 330 329 332 332 332 330 330 331 331 329 327 330 329 329 329 327 317 316 316
334 336 337 334 329 331 331 331 329 329 329 329 331 334 331 331 330 330 328 328 329 329 328 328 328 320 319 323 316 316 314 314
334 334 335 329 329 329 329 330 333 333 335 336 335 336 334 330 331 325 325 326 327 323 325 322 321 320 318 317 316 314 312 312
334 333 333 329 329 327 328 332 332 336 336 335 334 333 332 330 327 326 326 324 324 323 323 322 320 319 317 316 315 313 312 312
330 331 330 329 331 333 333 334 335 336 335 333 334 331 330 330 327 323 322 323 322 320 319 318 315 314 315 314 313 312 312 312
329 329 330 331 333 333 332 331 330 330 329 331 332 329 328 326 323 321 322 318 317 316 314 313 313 314 312 313 313 312 310 309
327 327 330 332 331 329 328 327 327 327 328 329 329 325 324 322 321 317 316 316 314 313 313 313 312 312 311 311 310 308 305 305
328 329 332 330 327 327 324 325 327 325 324 321 321 321 321 317 317 316 316 316 314 312 312 311 309 309 307 306 305 304 303 304
330 332 329 327 327 327 327 327 322 321 320 319 319 319 319 318 317 316 315 314 313 313 310 309 306 304 303 300 302 301 302 303
330 332 330 328 327 327 326 323 321 321 320 318 319 318 318 317 315 313 313 312 310 309 308 306 303 301 302 301 301 300 300 301
329 329 328 327 326 324 322 320 320 320 320 319 318 317 316 315 314 313 312 309 307 305 303 302 301 301 298 297 297 297 297 298
328 327 327 328 328 326 324 321 320 319 317 317 316 315 314 313 311 309 308 305 304 304 303 300 300 300 296 294 291 293 295 296
328 327 328 329 329 326 324 322 317 315 315 314 313 314 312 310 308 307 306 305 303 303 301 300 296 297 298 294 289 287 290 293
329 329 329 329 327 322 320 316 312 315 315 313 312 313 310 308 307 306 306 305 303 302 302 299 297 294 296 298 295 292 287 286
330 330 328 324 322 321 319 315 315 313 311 309 308 309 309 307 307 305 303 303 302 302 301 299 298 295 293 293 293 291 290 286
327 326 321 321 320 319 318 313 310 307 306 306 307 305 305 304 303 301 301 300 300 300 300 301 296 296 295 294 292 289 287 286
321 319 317 318 317 314 311 308 308 306 306 305 301 301 300 300 300 299 298 299 300 300 299 297 297 295 294 294 293 292 292 290
318 316 315 315 312 310 309 308 306 305 305 301 301 300 299 299 299 299 298 298 298 298 298 298 297 295 294 294 294 294 294 291

GFSFLT2_sfc_thetae_033.txt.gz
Theta_e
336 337 339 338 337 337 336 336 336 336 336 336 336 335 335 336 336 336 335 335 334 332 329 328 328 329 330 328 326 327 317 317
335 337 336 334 334 335 335 334 334 334 334 333 332 333 334 334 334 334 333 332 332 331 330 327 327 326 328 328 324 322 312 315
332 333 333 332 331 334 334 334 332 332 332 331 329 327 328 331 330 331 330 329 329 329 328 327 328 327 328 328 322 312 311 313
324 331 331 329 331 329 328 329 327 326 327 327 325 326 326 328 329 330 329 328 328 328 329 327 323 316 315 319 312 311 310 311
326 330 331 325 327 325 326 325 324 325 326 326 329 330 326 326 326 323 320 326 322 322 323 321 317 315 313 312 312 310 309 309
329 332 328 325 326 324 325 327 330 331 331 331 328 328 325 324 321 322 322 320 318 317 315 314 311 312 312 310 310 309 309 309
329 329 325 325 323 328 330 329 330 330 328 329 327 325 323 321 319 318 316 316 315 312 312 310 310 311 310 310 310 309 306 306
326 325 323 327 329 329 329 326 325 325 326 327 326 324 320 318 316 314 313 312 312 311 311 310 309 309 309 309 307 305 302 301
323 323 328 328 325 324 322 322 322 323 325 324 320 320 317 316 313 312 311 311 310 309 309 308 307 308 307 305 304 301 301 301
322 328 326 323 323 321 320 321 321 321 318 316 317 317 314 313 312 311 311 312 309 309 307 306 304 302 300 299 299 300 300 299
322 327 323 322 321 320 322 319 317 316 315 313 314 315 316 313 311 309 310 309 308 307 305 304 300 299 299 297 298 297 296 300
327 325 322 322 322 321 321 316 315 315 314 313 314 314 315 311 309 309 308 306 303 303 302 301 299 298 300 298 295 295 295 295
326 324 323 322 320 318 317 315 314 313 313 314 314 312 311 309 308 305 304 303 300 301 299 298 297 297 294 293 294 294 294 293
325 324 323 323 322 322 320 315 314 312 311 311 311 310 309 308 305 303 302 301 300 299 298 296 296 295 292 291 288 290 292 293
324 324 323 324 324 322 319 314 310 309 308 307 308 309 307 306 304 302 301 301 299 298 297 295 293 294 294 291 287 284 287 289
324 324 324 324 324 319 314 309 307 308 308 307 306 308 306 304 303 302 301 300 298 298 299 296 294 292 293 295 291 289 285 283
324 324 324 325 325 318 315 309 307 307 307 306 306 305 305 301 300 298 296 297 296 296 296 296 294 293 291 291 290 289 287 284
322 324 323 322 316 315 310 308 304 302 301 301 302 300 299 298 297 296 296 295 295 295 295 295 294 293 295 293 290 288 286 284
321 320 314 312 308 305 303 302 301 300 300 299 298 297 296 295 296 296 294 295 294 294 295 294 294 293 292 292 292 291 290 289
318 312 310 309 305 303 302 301 301 301 299 297 299 298 298 297 296 294 294 295 294 294 293 294 294 292 291 291 291 292 292 291

GFSFLT2_sfc_thetae_039.txt.gz
Theta_e
333 335 337 337 336 336 336 337 338 338 337 337 336 336 335 335 335 335 334 333 332 331 330 331 329 328 327 327 325 324 315 318
326 328 329 331 331 334 335 335 336 336 336 335 334 334 334 334 334 334 333 333 331 330 330 331 329 328 325 325 324 319 312 312
326 328 326 329 330 332 334 335 335 334 333 333 329 327 326 325 330 331 331 330 329 330 329 326 326 326 325 321 316 310 309 309
324 326 325 329 330 327 325 328 326 326 325 324 324 323 324 326 328 327 328 328 328 328 326 323 316 311 310 312 306 306 306 308
322 324 328 327 325 324 322 322 322 323 323 322 323 324 324 322 322 317 317 322 316 313 311 310 309 308 307 306 305 303 301 302
322 329 328 324 323 322 322 320 321 322 322 323 323 323 322 320 318 317 315 312 310 309 308 309 308 307 306 304 301 299 298 299
324 327 326 322 321 320 320 321 325 327 327 327 324 321 316 316 314 312 310 309 308 307 308 307 306 304 303 301 299 299 298 297
325 325 327 322 320 320 323 326 325 324 323 323 321 318 315 312 310 309 308 308 307 307 305 303 301 301 300 300 298 297 296 296
323 325 322 321 322 323 323 323 322 322 322 321 319 316 313 310 308 308 307 307 307 305 303 301 299 299 297 298 297 295 295 295
324 327 322 322 321 321 320 319 320 319 317 317 316 315 312 309 308 308 307 307 305 303 302 299 297 297 295 295 295 294 294 294
322 323 321 319 318 318 318 318 317 315 314 313 313 312 311 308 307 306 305 303 302 303 300 298 296 295 296 294 293 292 292 294
322 321 319 318 318 316 315 317 315 313 311 312 313 312 310 308 306 304 301 300 299 298 296 296 296 294 297 294 292 291 291 290
321 319 318 319 318 315 312 311 311 310 310 311 312 311 309 305 303 301 300 299 298 297 296 295 293 293 291 291 291 291 290 289
320 320 318 318 319 314 313 312 311 310 310 310 309 309 306 303 301 300 299 298 297 296 296 294 294 293 290 288 286 288 290 290
320 320 318 318 318 316 312 310 308 307 307 306 306 307 305 303 301 300 298 298 297 296 295 294 292 292 292 291 285 283 285 288
321 320 318 319 319 316 311 309 308 306 306 305 305 306 304 302 301 300 298 297 295 296 296 293 292 291 291 293 289 288 284 283
320 320 320 320 320 318 313 309 307 306 304 304 302 301 301 300 298 296 296 296 296 295 293 292 292 290 289 289 288 287 286 284
319 320 320 320 319 317 313 309 306 305 303 301 300 297 296 296 296 297 296 296 296 293 292 292 292 291 290 290 289 287 286 284
320 320 319 319 319 317 312 310 307 307 304 302 297 295 295 295 296 297 297 295 294 294 291 291 292 291 290 290 289 289 289 287
320 320 320 318 316 314 310 308 307 307 304 301 299 298 297 297 297 296 297 295 295 294 293 293 291 290 289 289 289 289 289 289

GFSFLT2_sfc_thetae_042.txt.gz
Theta_e
334 331 335 336 336 337 337 338 338 338 337 337 337 336 335 335 334 334 333 333 333 332 330 329 331 331 329 327 326 323 315 315
327 327 329 330 331 335 336 337 336 336 336 335 334 334 334 334 333 333 332 333 333 333 330 329 328 328 327 324 321 317 309 310
322 324 326 328 329 333 334 336 335 334 333 333 327 326 326 324 330 331 331 331 331 330 329 326 325 323 321 318 314 307 308 308
320 324 323 328 329 326 327 329 326 326 325 324 324 323 321 324 326 328 329 329 328 326 323 320 313 308 309 310 304 303 303 305
321 322 324 328 325 322 322 322 322 322 322 321 321 323 322 321 319 316 318 318 311 311 310 309 307 306 304 302 301 300 299 300
323 323 327 325 324 320 320 320 320 321 321 322 323 322 320 319 316 314 311 310 308 308 308 306 305 304 302 301 299 298 298 299
321 324 326 323 322 319 319 319 320 322 322 322 323 321 317 316 313 310 308 308 307 307 306 304 302 301 300 299 298 297 297 297
320 325 325 322 320 318 319 321 323 324 323 324 322 318 315 311 309 307 307 307 306 305 303 301 299 299 299 298 296 295 296 296
321 323 324 320 319 319 321 322 322 320 320 320 318 315 312 309 307 306 306 306 305 303 301 299 298 298 297 296 295 295 295 296
322 325 322 319 319 320 320 320 319 319 318 317 316 313 310 308 307 306 306 305 304 302 299 297 297 296 295 294 294 294 294 294
321 323 320 319 318 318 318 318 318 316 315 314 313 312 310 308 307 306 305 304 302 301 298 297 295 295 295 293 293 292 292 294
321 320 319 317 316 315 315 316 315 315 314 313 312 311 309 308 306 304 302 300 298 297 296 296 295 295 296 293 292 291 291 291
320 318 317 317 315 314 312 312 314 313 313 312 311 309 308 306 303 301 300 298 297 297 296 295 293 293 292 292 291 291 291 290
319 319 317 318 319 314 313 311 311 313 312 310 310 308 307 304 301 299 299 297 297 296 295 294 293 292 290 288 286 289 291 291
319 319 318 319 318 314 310 309 309 309 307 307 307 307 304 302 300 299 298 297 296 295 294 293 291 292 292 290 286 284 286 289
319 319 318 318 317 315 311 310 307 307 308 307 305 305 303 301 300 298 297 296 295 295 295 294 292 291 291 293 290 289 286 285
317 318 318 318 318 316 312 308 308 306 305 304 303 302 301 300 299 296 295 294 294 294 293 294 292 291 290 290 289 288 287 285
317 317 317 319 318 316 312 309 307 307 304 303 300 298 297 297 296 295 294 294 295 294 295 294 292 292 291 290 290 288 287 286
317 318 318 319 318 317 313 311 311 309 306 304 300 295 294 294 295 294 294 295 296 295 294 293 291 291 290 290 290 290 291 288
318 319 318 318 317 317 315 314 313 311 309 305 301 297 295 295 296 297 296 297 296 294 293 294 292 290 289 289 290 290 290 289

GFSFLT2_sfc_thetae_045.txt.gz
Theta_e
335 334 333 333 337 337 337 338 338 338 338 338 337 335 334 334 335 335 335 333 333 333 334 332 331 330 328 325 324 323 319 320
326 326 327 330 335 336 337 337 337 337 336 334 333 333 334 334 333 334 335 334 332 331 331 331 329 326 323 321 320 320 318 317
319 321 325 327 331 337 337 337 335 334 333 332 329 328 328 328 330 332 332 333 332 330 327 325 324 323 319 316 318 316 316 317
319 322 324 326 328 333 333 333 331 330 330 329 329 330 329 328 329 330 331 329 327 325 321 319 318 315 311 312 311 312 313 314
321 323 323 325 327 329 329 328 328 329 330 329 330 329 330 327 327 326 324 322 318 318 316 315 314 312 311 311 310 310 310 309
320 322 322 324 325 326 326 325 327 327 327 329 330 327 327 324 323 324 319 318 318 317 315 314 312 311 311 310 309 308 308 309
321 325 327 328 326 325 325 326 326 328 327 329 329 326 325 324 321 320 318 318 317 314 313 312 311 309 308 307 306 306 307 308
324 325 328 326 324 323 324 327 327 327 328 328 331 330 327 323 319 316 316 317 316 313 312 311 309 308 306 306 305 305 306 309
323 326 329 327 326 324 325 326 328 330 331 332 331 328 324 321 317 316 316 315 314 312 310 310 308 306 305 304 304 305 306 310
323 326 329 327 326 325 326 328 331 329 329 328 327 324 320 318 316 316 315 314 313 309 310 307 306 307 305 304 304 304 305 308
323 327 329 327 326 326 327 329 329 328 327 325 323 320 318 318 316 316 316 313 311 310 308 308 306 305 304 304 304 303 303 302
325 327 329 328 327 325 326 327 327 326 326 324 322 319 318 318 316 315 312 309 309 308 307 307 306 306 302 303 304 302 302 302
325 326 327 326 323 322 323 323 323 322 322 322 321 320 318 317 314 312 311 310 308 308 307 306 305 306 304 302 303 300 301 301
325 326 326 326 325 324 324 325 324 323 317 316 316 318 316 314 312 310 310 308 308 307 307 305 305 305 301 299 296 297 299 301
325 326 327 327 326 324 321 321 320 318 316 315 316 316 313 311 311 310 309 308 307 307 306 304 301 303 302 299 294 293 297 300
325 326 325 326 325 323 321 321 319 319 318 318 315 314 311 308 309 309 308 308 306 306 304 304 302 299 301 300 301 300 294 293
326 326 325 325 324 324 322 322 322 319 318 316 313 311 310 307 308 308 307 306 305 304 303 302 299 297 299 300 300 299 299 295
325 324 324 325 324 323 321 320 317 315 315 312 310 312 309 307 307 307 306 304 303 302 303 301 299 300 300 300 299 296 295 294
324 324 323 323 323 322 321 320 318 317 315 310 307 308 307 306 306 304 302 302 301 301 298 298 299 298 299 299 300 299 298 296
323 322 323 323 322 322 322 321 320 318 315 312 309 308 308 306 303 302 301 300 300 299 298 298 300 300 300 300 299 299 298 296

GFSFLT2_sfc_thetae_048.txt.gz
Theta_e
336 337 336 335 335 336 336 337 338 338 338 338 338 337 336 336 335 335 336 335 335 334 333 332 330 327 326 324 323 322 321 321
326 326 328 333 333 335 337 337 337 337 336 335 334 334 335 335 334 334 334 334 335 334 331 329 326 324 322 322 321 323 319 319
324 321 319 323 329 334 336 337 335 333 333 332 328 328 328 330 332 334 333 332 331 330 328 326 324 320 318 319 320 319 318 318
320 321 321 324 329 331 335 333 331 330 328 328 328 330 330 328 331 332 331 329 327 325 323 324 324 320 317 316 317 317 316 315
317 318 320 323 327 332 331 330 330 330 330 329 331 330 330 329 329 328 327 326 322 321 320 322 321 320 318 318 316 315 314 313
316 318 321 323 324 328 329 325 327 327 328 331 330 329 329 329 328 329 327 326 325 324 322 321 319 318 317 316 315 312 311 311
317 321 322 322 323 327 327 327 326 327 328 330 329 328 328 328 329 327 326 326 324 322 320 318 318 316 315 313 311 311 310 311
318 322 322 323 325 328 328 328 327 328 327 330 333 329 329 328 328 327 325 325 323 321 320 318 317 315 313 311 310 309 310 312
322 323 324 323 325 328 327 327 326 326 329 335 335 333 332 330 328 325 325 324 323 321 319 318 316 313 310 310 310 311 311 312
326 326 327 328 328 325 327 327 328 329 333 336 337 336 334 331 327 325 324 322 321 319 317 316 315 313 311 311 311 310 310 311
326 328 329 331 331 326 327 329 330 333 336 335 335 333 331 329 326 324 324 321 320 317 317 316 312 310 309 311 311 310 309 307
328 328 331 333 332 329 325 328 330 334 335 333 333 330 328 327 325 323 323 321 318 316 315 313 312 312 306 308 310 308 308 307
327 329 331 332 329 325 322 324 328 332 333 333 332 329 326 326 324 323 322 318 318 317 314 311 309 311 309 309 309 307 305 305
327 327 329 332 331 327 325 324 327 329 332 332 331 329 327 326 325 321 320 319 317 315 313 310 311 311 308 306 303 303 304 305
327 327 329 332 332 329 326 326 328 328 328 327 323 321 323 324 321 317 318 318 315 315 313 311 308 308 306 305 301 301 303 305
328 329 330 332 333 330 326 322 322 327 329 328 326 326 323 321 319 316 317 317 315 314 312 310 308 307 306 305 305 303 299 298
329 329 329 331 333 332 328 324 325 328 329 327 326 324 322 319 317 315 315 314 315 313 310 309 309 308 303 304 303 304 303 298
331 329 329 331 332 332 331 329 327 326 326 325 324 321 319 317 315 316 314 314 314 311 310 310 306 302 301 303 303 300 299 298
332 330 328 330 330 330 331 330 330 328 326 325 324 319 312 313 314 315 314 314 311 310 307 306 304 303 304 303 302 301 301 299
332 328 327 329 330 330 331 331 328 328 328 326 322 315 313 314 313 313 313 310 307 303 303 306 304 304 302 302 302 302 302 300

GFSFLT2_sfc_thetae_051.txt.gz
Theta_e
336 337 337 337 337 337 337 338 339 339 339 339 338 337 337 338 339 338 337 336 335 334 333 331 328 326 325 323 322 324 322 321
332 332 333 335 337 335 336 337 337 337 337 335 335 335 335 335 336 336 336 335 334 332 331 329 326 323 323 322 321 324 320 319
328 328 329 332 334 334 334 337 336 334 334 332 329 326 326 329 332 333 335 334 332 330 328 327 324 322 321 320 321 318 317 317
319 321 324 324 329 331 332 334 332 331 330 331 327 331 331 327 331 331 331 331 330 328 326 325 324 320 318 319 318 317 315 314
317 320 321 320 323 325 327 329 330 329 330 330 332 330 329 330 328 325 326 326 322 321 321 324 324 323 320 319 317 315 312 312
318 321 321 324 323 324 325 327 328 327 330 334 333 330 331 329 327 327 326 325 324 324 325 324 323 321 319 317 315 312 311 312
316 319 319 322 324 324 326 325 323 327 330 332 331 329 332 330 330 328 328 328 327 326 324 322 321 319 317 315 312 312 312 312
317 320 320 321 321 322 324 325 326 328 330 331 333 332 333 328 329 327 327 328 327 325 323 322 321 318 315 312 311 311 312 313
318 319 320 318 318 321 323 326 326 327 328 334 334 332 332 331 330 329 328 328 327 326 323 322 319 316 313 312 311 311 311 312
320 320 321 319 321 322 323 327 327 326 328 333 334 332 332 331 329 328 329 328 325 323 322 320 318 315 313 311 311 311 310 311
320 321 319 322 327 328 330 329 325 323 328 331 333 334 335 335 330 329 329 326 324 323 321 321 316 313 312 311 312 311 309 308
325 325 325 328 329 327 324 326 326 328 330 332 334 335 334 333 330 329 328 325 323 322 321 319 316 314 309 309 312 311 310 309
326 327 329 329 326 324 320 323 325 327 330 333 333 333 333 331 329 328 327 325 324 322 320 316 313 313 311 311 311 311 309 308
327 327 327 330 329 326 324 323 324 325 329 333 333 333 331 330 329 327 326 324 322 321 319 314 314 314 310 310 306 308 307 307
327 328 329 331 331 329 326 324 325 324 326 329 331 332 331 329 329 327 326 324 321 320 318 316 312 312 312 309 305 303 306 308
328 328 329 329 331 329 326 322 319 323 325 328 330 331 328 327 327 326 324 323 320 319 318 317 314 310 311 310 310 307 301 301
330 328 328 329 331 331 329 325 324 325 328 329 330 330 328 327 326 325 322 320 321 319 319 316 313 311 310 308 305 305 306 302
331 328 328 329 330 331 331 329 326 323 328 328 329 329 328 326 323 323 321 320 318 318 318 315 313 310 304 304 305 304 303 302
331 328 326 328 329 330 331 331 330 327 326 329 327 325 325 324 322 319 316 316 316 318 316 312 307 305 304 305 306 304 303 301
330 330 329 328 326 329 332 332 333 331 331 329 328 327 327 323 317 315 315 315 315 311 305 307 307 305 303 301 301 302 302 302

GFSFLT2_sfc_thetae_054.txt.gz
Theta_e
335 337 338 337 337 337 338 339 340 340 340 339 339 340 341 341 340 338 337 336 335 333 332 330 328 325 324 323 324 326 315 316
332 333 332 331 331 334 335 337 337 337 337 335 335 337 338 337 336 336 335 335 333 332 330 328 326 323 321 321 323 324 314 315
331 330 329 327 327 331 334 337 335 334 334 332 330 332 332 331 333 334 334 333 332 330 328 326 324 322 322 322 321 312 312 311
327 327 327 324 325 327 329 332 330 329 327 326 324 325 327 330 332 332 332 330 329 328 327 325 322 313 313 319 312 312 311 309
321 324 325 326 325 326 326 327 327 328 328 327 328 326 326 326 326 325 324 325 319 321 320 318 319 318 315 314 312 309 308 307
320 320 321 321 322 322 323 323 324 325 330 330 327 326 326 323 322 322 320 320 317 319 319 321 318 317 315 312 310 308 307 307
319 320 318 318 318 320 321 322 324 326 328 329 330 326 326 325 324 323 322 323 320 322 320 318 317 315 313 310 309 307 308 311
318 318 319 318 316 318 319 321 324 325 328 328 330 328 328 327 328 326 325 325 324 323 320 318 316 314 310 308 307 307 307 308
318 318 320 319 318 321 321 322 325 326 327 329 328 329 328 327 326 326 325 325 324 322 319 319 315 315 310 308 307 306 307 307
318 319 318 317 317 318 317 319 326 325 326 327 329 329 328 327 326 326 327 326 322 320 318 316 315 312 308 306 305 306 305 306
317 317 315 314 315 316 320 321 324 324 324 327 329 330 329 328 328 327 327 324 321 320 318 317 314 310 308 307 306 305 305 306
318 317 317 317 316 318 320 323 324 324 322 326 329 330 331 329 328 327 324 322 321 319 317 317 314 310 309 306 307 306 305 303
318 318 319 317 320 319 319 320 321 321 323 328 330 330 330 329 328 326 324 322 320 320 317 314 310 308 306 305 307 306 305 303
320 320 317 319 323 323 320 320 323 323 324 328 330 330 330 329 326 324 323 321 321 318 316 311 310 310 305 305 300 302 303 304
323 323 322 323 325 325 323 321 321 321 322 326 328 328 328 328 327 325 323 322 318 318 316 312 308 310 307 304 300 298 299 302
325 325 325 326 327 326 323 319 316 319 321 325 327 329 328 328 326 325 324 321 318 317 316 314 313 307 308 307 305 301 296 297
325 326 326 326 328 328 325 321 320 320 323 323 327 328 328 326 325 323 321 320 318 316 314 314 312 309 307 305 301 301 302 299
325 326 325 326 329 329 327 324 322 320 322 323 326 326 325 325 324 323 321 318 318 317 316 313 311 308 304 302 302 301 300 300
325 326 325 326 326 328 327 327 327 323 323 324 324 324 324 324 323 320 319 318 316 315 313 310 308 303 302 303 303 300 300 299
325 325 325 326 326 328 328 328 328 326 325 324 325 325 324 324 322 321 317 315 314 312 308 304 304 304 303 299 300 300 300 301

GFSFLT2_sfc_thetae_057.txt.gz
Theta_e
337 338 338 337 337 337 338 340 340 341 342 342 342 341 341 339 338 337 336 335 333 331 330 328 327 326 326 325 325 325 318 319
333 334 334 333 332 334 336 337 337 338 339 339 339 339 339 337 336 336 335 334 332 330 328 326 324 323 322 322 323 322 317 318
330 328 328 327 328 332 337 337 335 335 336 334 333 333 332 331 333 334 333 332 331 329 327 324 323 321 320 322 318 309 311 314
327 326 325 325 324 330 331 332 329 327 326 325 329 327 330 331 332 332 331 331 329 328 326 324 319 310 311 316 308 307 308 311
325 324 323 323 324 325 326 328 327 324 324 324 326 328 327 327 326 325 324 326 321 322 320 315 315 312 310 307 306 305 303 305
322 322 321 321 323 323 324 325 325 323 326 324 324 323 322 321 320 320 318 318 314 315 314 316 313 312 309 307 305 304 303 303
319 320 320 320 320 321 321 322 324 325 326 326 325 322 320 320 320 318 318 318 314 316 316 315 312 311 309 306 305 304 305 306
316 316 318 319 318 319 319 321 322 323 325 327 325 324 321 321 321 318 318 319 317 319 315 314 312 309 306 305 304 304 307 307
316 316 317 317 317 317 318 320 322 321 324 326 325 325 324 323 324 322 321 321 319 317 316 314 312 310 306 304 304 304 304 306
318 319 315 316 316 316 318 320 320 321 323 323 324 325 325 323 322 322 321 322 319 316 315 312 311 307 303 303 303 303 303 304
316 317 315 315 318 318 318 318 320 321 321 322 324 326 327 322 323 322 323 320 318 316 314 313 311 308 304 303 302 302 301 304
315 316 315 316 317 315 314 315 316 319 319 320 325 326 326 325 324 324 322 319 317 315 313 314 312 307 308 305 302 302 301 300
314 313 312 312 312 311 312 313 314 319 319 320 324 325 327 326 325 323 321 318 317 315 313 312 309 307 303 301 302 302 301 300
313 313 311 311 311 313 315 315 316 318 319 320 326 326 327 326 324 322 320 318 317 315 313 309 308 305 301 302 300 300 301 301
313 314 313 313 314 316 317 315 316 318 318 318 325 326 326 326 324 322 320 319 317 314 312 309 306 306 304 303 298 296 297 299
315 316 315 315 317 318 317 315 313 317 318 319 323 325 325 326 325 322 320 320 316 315 314 310 307 306 304 307 305 301 296 296
316 318 315 315 316 320 319 319 317 316 318 317 322 324 325 325 324 322 320 319 316 314 312 310 312 308 305 304 302 301 301 298
319 318 318 317 319 320 321 321 316 314 314 316 320 323 324 324 322 320 319 316 315 315 315 313 313 309 306 305 302 300 300 300
320 320 320 322 321 322 322 323 321 318 317 317 319 321 320 322 323 318 316 317 317 316 314 312 310 304 302 303 303 301 301 299
320 320 320 322 322 323 324 324 324 322 321 319 321 322 323 323 322 320 318 317 315 313 312 308 305 304 304 301 300 300 301 301

GFSFLT2_sfc_thetae_060.txt.gz
Theta_e
337 338 339 338 336 334 334 339 341 341 341 340 340 339 338 338 337 336 334 333 331 330 329 328 328 327 329 327 325 324 316 317
335 335 336 333 332 332 332 336 339 340 340 339 337 337 337 336 335 334 333 332 330 328 327 327 326 326 327 326 325 322 314 315
333 332 332 331 332 333 335 338 338 337 336 336 334 334 332 330 333 333 332 331 329 327 327 324 321 324 324 322 318 312 314 316
326 326 326 328 330 332 333 335 335 334 330 331 330 329 329 330 331 331 331 329 328 326 325 323 317 309 311 314 307 309 313 316
324 323 324 325 327 330 329 329 328 326 327 327 329 329 327 327 326 324 324 325 320 319 314 313 313 308 305 304 304 305 307 312
323 323 323 323 325 325 326 325 324 324 325 326 326 324 323 322 321 320 318 316 316 314 312 313 311 308 306 304 303 302 302 306
320 321 321 322 322 322 322 323 324 324 324 323 323 321 320 320 319 317 315 315 313 313 315 312 310 309 307 304 303 302 301 303
320 319 320 321 320 320 320 322 323 325 324 323 321 320 319 318 317 316 314 316 313 315 314 311 310 306 304 304 303 304 305 303
317 318 319 319 319 319 319 320 322 323 324 324 322 320 318 318 318 315 315 316 314 316 314 312 310 308 304 303 303 304 306 304
317 319 317 318 318 318 317 319 320 320 322 324 324 322 320 321 321 320 319 318 317 316 314 312 310 306 303 302 301 302 303 305
316 317 316 316 316 317 317 319 318 319 320 320 322 322 324 322 321 321 320 320 317 316 313 311 309 305 303 301 301 301 301 305
315 315 315 315 315 316 317 317 318 319 319 318 322 322 324 322 322 321 321 319 316 314 312 312 311 309 308 304 300 300 300 299
314 312 313 315 315 314 313 313 316 318 318 319 321 322 324 322 321 322 320 319 316 314 312 311 310 306 302 300 300 301 299 299
313 313 313 315 315 314 313 315 315 315 318 318 318 323 324 323 322 321 319 317 314 313 312 309 309 305 302 301 300 303 301 300
313 312 312 313 313 312 311 312 313 313 314 315 318 321 323 323 323 322 319 318 316 313 312 309 308 305 303 302 296 296 297 298
313 313 312 313 312 311 311 311 310 312 313 314 316 322 323 324 323 322 320 319 317 316 314 311 310 308 306 305 303 302 296 297
312 312 312 312 311 312 312 311 312 313 315 316 316 319 323 324 323 322 320 319 318 316 313 313 312 311 308 304 303 301 301 298
311 311 313 311 312 313 314 313 314 313 313 315 316 318 320 323 324 323 321 320 318 316 316 313 311 311 309 307 304 301 298 300
313 312 313 312 312 313 316 316 316 317 314 314 315 316 319 321 322 321 320 320 319 318 316 312 311 309 309 306 305 304 303 301
313 313 313 313 312 312 314 318 319 320 318 316 315 317 320 322 321 321 319 319 318 316 313 312 310 308 305 304 300 302 302 302

GFSFLT2_sfc_thetae_063.txt.gz
Theta_e
336 336 338 336 335 334 334 335 338 338 340 339 339 338 336 336 335 334 332 331 330 330 331 332 331 329 328 326 325 323 314 315
334 334 334 332 332 331 330 332 336 337 339 338 336 336 335 334 333 332 330 330 329 329 329 330 331 328 327 326 325 321 314 314
333 332 331 329 327 327 329 332 334 335 336 336 333 332 330 327 330 330 330 329 329 327 325 328 328 328 327 324 320 314 314 314
330 329 327 326 326 326 324 325 327 330 332 332 331 327 326 327 328 329 328 327 327 327 324 321 316 314 318 318 312 314 314 315
326 327 328 326 325 324 323 324 327 330 330 329 328 326 326 323 323 322 320 322 316 314 313 310 307 307 305 307 309 311 313 316
324 325 326 326 327 326 329 329 329 330 328 328 327 324 322 321 319 319 317 315 313 312 313 310 307 305 304 304 304 306 309 313
322 323 324 324 325 325 325 325 326 326 327 328 325 321 320 319 318 316 314 314 312 313 311 309 307 305 303 302 300 301 305 310
321 322 322 323 323 323 322 323 323 324 324 324 323 321 319 318 316 314 312 312 312 313 311 309 307 305 302 302 302 300 301 303
319 319 321 321 321 321 321 323 324 323 323 321 320 320 318 317 315 314 313 314 312 314 311 309 305 304 303 302 302 304 302 302
319 320 320 319 319 319 320 320 322 323 323 321 319 318 318 317 316 315 315 315 313 313 312 309 307 304 301 300 302 304 304 302
317 318 318 317 317 317 318 318 318 320 321 321 320 320 320 318 317 316 316 315 315 314 312 310 307 305 302 300 300 301 302 305
316 316 317 317 316 316 317 317 317 318 318 320 321 321 322 319 319 319 319 317 315 314 312 310 308 306 306 303 300 300 299 300
314 315 314 314 313 314 314 315 315 317 317 319 321 321 323 321 319 319 319 318 316 314 310 309 309 307 302 300 299 299 299 298
313 312 311 312 314 314 313 316 315 315 317 318 318 320 320 321 320 319 319 317 315 312 310 308 309 305 302 299 296 298 300 300
313 311 312 312 312 314 311 312 313 312 313 315 316 317 320 321 321 320 318 317 315 312 311 310 308 306 303 304 297 295 296 298
312 312 311 313 313 309 309 309 310 312 313 312 313 317 318 320 321 320 319 318 315 314 314 312 310 307 306 305 304 302 298 297
311 312 311 312 312 311 310 309 311 310 309 309 311 313 318 319 319 318 318 318 318 316 313 311 312 310 309 304 304 303 301 299
311 311 311 312 312 310 310 310 310 309 308 309 312 313 314 317 319 319 319 319 318 317 317 315 314 313 309 308 305 302 301 298
310 311 310 311 311 311 310 310 310 310 310 311 311 312 313 315 317 319 319 319 319 318 316 316 313 311 309 309 308 307 305 302
310 310 310 311 310 310 311 311 312 313 313 312 313 313 315 315 316 319 319 319 317 316 316 314 312 311 309 307 306 306 303 303

GFSFLT2_sfc_thetae_066.txt.gz
Theta_e
332 333 336 336 336 336 336 335 337 339 339 339 338 337 336 337 335 333 333 336 336 334 332 331 330 328 328 326 325 323 315 316
332 332 333 329 331 333 333 332 336 338 338 337 336 335 335 333 331 331 331 334 334 333 331 330 329 328 327 326 325 322 315 315
331 331 330 329 329 329 330 333 333 335 337 335 332 330 327 324 327 329 330 330 331 332 331 329 327 327 326 325 320 315 315 316
330 330 328 328 328 328 327 329 330 329 332 330 329 326 323 325 327 328 327 327 329 331 330 328 324 320 321 320 314 314 315 316
328 327 326 325 323 323 325 328 328 328 330 329 326 325 325 322 321 319 320 320 316 319 317 313 311 311 310 311 314 314 315 317
326 326 325 324 322 320 323 324 326 327 327 328 325 323 320 319 317 315 312 311 311 311 307 307 307 307 309 310 312 312 314 316
323 326 325 325 322 321 321 322 324 325 326 327 324 321 318 316 316 314 312 311 312 309 307 306 306 304 305 307 308 310 312 315
322 323 326 326 323 324 325 327 326 327 328 327 323 320 318 316 315 313 312 311 312 310 308 306 304 303 302 302 302 304 308 311
320 321 324 323 324 323 324 325 326 326 326 324 321 319 316 316 313 312 312 312 314 311 309 307 303 303 302 302 301 301 301 305
320 322 321 321 321 320 323 324 324 323 323 322 320 319 317 315 314 313 314 313 314 312 309 307 304 302 301 301 302 305 303 302
319 320 319 319 319 320 320 320 322 322 322 320 318 318 318 316 315 314 315 315 313 313 311 309 306 305 302 301 301 302 305 304
318 318 318 318 318 318 318 318 318 321 321 319 319 319 319 318 317 316 316 315 314 312 311 310 309 307 305 303 301 301 301 302
316 316 316 316 316 315 315 315 316 317 318 320 320 320 320 319 318 318 318 316 314 313 311 310 309 307 303 302 302 301 300 299
315 315 314 315 316 317 316 316 315 316 317 318 320 321 322 321 319 318 318 317 316 313 311 309 309 306 304 300 299 300 300 300
313 313 313 313 314 314 313 316 313 312 313 315 317 319 321 320 320 319 318 317 315 312 311 310 308 306 304 306 299 297 298 300
313 312 311 311 311 310 309 313 313 313 313 314 315 317 318 319 320 319 318 317 316 315 313 311 309 307 305 305 303 301 298 299
313 313 310 312 311 310 310 308 314 312 312 311 312 314 316 316 317 318 318 318 317 315 312 311 311 309 307 304 304 303 302 303
311 311 311 311 311 310 309 309 309 309 306 307 308 309 311 314 316 316 316 315 315 316 315 313 313 312 310 308 305 303 301 301
310 310 309 310 310 311 309 309 309 309 309 307 307 308 309 310 313 314 315 316 315 315 313 312 312 312 312 310 310 309 307 306
309 309 310 310 310 310 310 310 310 310 309 310 308 308 309 310 311 314 315 315 315 313 314 315 315 314 313 312 311 310 308 305

GFSFLT2_sfc_thetae_069.txt.gz
Theta_e
336 339 339 338 338 337 337 339 340 340 339 339 339 338 338 337 335 336 338 338 337 334 332 331 330 329 328 327 325 326 325 325
334 337 335 339 340 336 335 336 336 336 338 337 336 337 337 335 334 336 338 336 334 332 331 330 329 328 327 326 325 325 324 324
336 335 331 331 333 334 332 333 333 333 334 335 334 337 334 329 330 335 336 334 332 331 330 329 328 327 327 325 324 323 324 324
331 331 328 329 330 327 326 326 325 328 331 335 335 332 330 327 330 332 333 333 331 330 329 328 325 324 324 323 323 324 323 323
328 329 329 328 328 328 328 327 325 328 329 331 331 328 328 327 328 328 331 331 329 328 326 323 323 322 322 322 323 323 323 323
328 328 327 327 327 326 329 327 326 327 331 332 329 325 324 324 322 323 324 328 329 326 323 322 322 321 321 322 322 322 323 323
326 326 325 324 323 325 327 326 325 327 329 330 325 321 319 322 321 319 319 322 323 321 321 319 319 319 321 321 321 322 324 323
323 325 324 322 321 323 324 325 328 328 328 328 326 322 323 321 320 318 318 319 319 318 317 316 316 317 317 319 320 321 323 324
324 324 325 322 321 322 324 326 326 326 327 326 324 324 324 323 320 318 319 319 317 316 315 314 312 312 312 314 316 319 321 323
325 324 324 323 323 324 325 327 327 327 327 324 323 324 324 322 319 319 320 320 318 315 313 311 311 310 310 309 309 311 315 319
322 322 321 322 324 325 324 325 325 325 324 323 323 323 324 322 320 320 321 321 319 317 316 314 311 310 309 309 310 311 312 309
320 321 320 321 321 321 322 324 325 324 323 322 321 322 322 322 321 321 321 321 320 319 318 317 315 312 308 308 310 310 312 312
319 318 319 319 319 321 318 317 319 321 322 322 320 321 321 321 321 321 322 320 320 321 320 317 316 315 311 311 311 310 310 310
318 318 317 319 320 320 320 320 320 319 321 321 320 321 322 321 320 321 321 321 321 319 319 318 318 315 314 312 311 312 311 310
316 318 317 318 318 317 317 316 316 317 317 318 320 321 322 322 321 323 322 323 321 321 320 320 318 316 315 316 309 310 311 311
318 318 317 319 318 315 316 315 312 315 317 318 319 321 322 323 323 323 322 324 323 321 323 322 321 317 314 313 314 313 311 310
318 318 318 318 318 318 317 316 317 316 314 315 317 318 320 321 323 322 323 322 322 324 322 320 320 320 317 315 314 312 312 311
317 316 316 318 317 317 317 318 318 313 313 315 314 316 318 320 320 324 325 324 325 325 324 323 322 321 321 319 316 313 310 306
314 314 314 316 317 316 316 316 318 318 315 316 313 314 315 318 322 322 322 323 323 324 324 323 323 322 321 319 317 314 311 310
313 312 312 314 316 316 316 317 317 318 318 317 316 317 318 319 320 321 322 322 323 324 324 324 324 323 322 321 315 314 314 313

GFSFLT2_sfc_thetae_072.txt.gz
Theta_e
343 343 341 337 338 338 338 341 341 341 341 341 340 339 339 340 339 339 339 338 336 334 333 332 331 330 329 328 327 330 328 327
337 341 341 341 343 335 337 337 338 339 339 338 337 338 336 336 337 339 338 336 334 333 332 331 330 329 327 327 326 327 327 327
336 339 340 340 339 337 336 337 337 336 336 336 334 337 336 334 335 337 336 334 333 332 331 330 329 328 327 326 326 326 326 326
338 338 339 335 334 333 332 332 334 332 332 333 334 337 335 330 335 335 333 332 331 331 330 328 326 325 325 325 325 326 326 326
336 332 333 330 328 327 327 327 326 331 331 331 334 335 332 332 336 335 332 329 326 327 326 325 325 324 324 324 326 325 325 325
333 333 330 330 328 326 326 324 324 326 328 331 333 331 330 331 332 331 330 328 327 326 325 326 325 324 324 325 325 325 325 325
329 332 331 328 329 328 326 324 322 326 328 330 332 328 328 327 330 331 330 330 329 327 325 324 323 322 324 324 324 325 326 325
327 327 328 326 328 326 326 324 323 326 327 328 332 328 327 323 325 327 330 331 330 326 323 322 321 321 322 323 323 324 325 326
326 325 324 324 324 325 325 326 326 326 326 327 328 327 325 325 323 323 325 327 327 325 323 321 320 320 320 321 322 323 324 325
325 326 324 324 324 324 325 326 327 327 326 328 326 325 325 324 322 322 324 324 322 321 320 317 318 317 316 317 319 321 322 324
324 326 323 324 324 324 325 326 326 327 326 325 325 325 326 324 322 323 325 321 321 321 320 319 316 315 315 315 315 315 318 319
323 324 323 323 323 325 324 325 327 326 325 323 323 323 324 323 322 325 325 322 322 321 320 320 319 316 314 314 316 316 317 316
323 320 321 322 322 321 319 321 322 324 324 324 324 323 323 324 322 324 325 323 324 324 323 321 319 319 316 315 315 318 317 317
322 320 320 322 321 322 322 321 324 325 323 323 322 325 323 323 322 323 325 324 326 325 323 320 322 322 318 319 314 316 318 317
321 321 322 323 324 325 322 320 320 320 321 321 321 322 324 322 321 320 322 324 323 324 324 323 321 322 322 320 315 313 320 321
322 320 322 322 322 320 322 321 316 321 319 320 321 321 322 321 320 320 322 324 324 326 325 325 325 322 321 322 324 322 315 313
320 321 323 321 320 321 320 321 317 319 320 319 319 320 322 322 322 322 322 323 326 327 325 326 326 324 324 322 320 319 319 316
322 322 322 322 322 320 319 318 318 317 316 318 317 318 319 321 322 324 325 324 327 327 326 327 327 326 324 325 322 319 318 317
321 322 321 322 322 322 321 322 322 319 317 317 316 316 317 318 321 321 322 324 321 324 324 326 326 326 325 324 325 324 324 321
320 321 321 322 322 323 323 323 323 322 322 321 322 321 321 323 323 321 322 322 321 324 325 325 326 326 326 326 325 325 326 322

GFSFLT2_sfc_thetae_075.txt.gz
Theta_e
347 345 340 338 338 333 331 339 341 343 343 342 341 340 339 340 340 340 338 337 337 335 334 333 332 331 329 329 327 330 327 326
342 345 343 341 342 337 336 337 338 339 341 340 338 338 339 339 338 338 337 336 335 333 333 332 330 329 328 328 326 327 326 325
336 343 343 344 343 340 337 337 337 337 338 337 334 336 337 337 336 336 335 334 333 333 332 330 329 328 327 327 327 326 326 325
340 340 340 340 336 335 335 337 339 336 335 334 332 332 337 336 336 334 333 332 331 331 330 328 325 323 324 325 326 326 326 325
337 339 340 338 337 337 336 334 334 334 330 330 331 331 334 335 335 333 331 329 325 326 326 323 324 322 324 326 326 326 325 325
336 335 334 333 332 329 332 333 330 328 327 329 330 329 332 336 332 332 326 325 324 323 323 327 325 324 325 326 326 325 325 324
335 335 333 332 329 325 325 326 327 329 328 328 329 328 330 331 332 331 327 328 326 324 325 324 324 324 325 325 325 326 326 324
332 334 332 331 329 327 325 323 324 325 326 327 328 328 328 331 332 330 330 330 327 325 325 323 322 323 324 325 325 326 326 325
330 329 333 329 329 328 325 322 323 325 325 327 327 327 329 331 332 331 330 331 331 328 324 323 321 321 322 323 324 325 326 325
328 329 327 327 327 325 324 323 322 324 326 326 326 327 328 329 328 329 331 331 328 324 322 320 320 320 320 321 322 323 324 325
327 325 324 324 325 325 325 323 324 325 326 325 325 326 327 327 326 327 330 327 327 324 322 320 318 318 318 319 320 320 322 322
327 325 325 323 323 325 324 324 324 325 324 324 326 327 327 327 325 326 325 323 323 322 323 321 320 318 315 315 317 318 319 320
327 324 324 323 323 321 321 320 322 325 324 323 324 325 326 325 325 327 327 323 323 326 323 323 320 321 316 316 317 320 320 318
325 324 325 324 322 323 323 322 323 324 324 322 322 324 324 324 325 325 326 323 326 327 326 322 322 323 316 316 312 315 318 320
325 324 322 324 325 325 324 324 323 322 322 323 322 323 323 323 325 326 327 326 325 326 327 325 321 322 324 322 315 312 320 321
324 323 324 323 325 322 320 318 317 319 321 321 320 322 324 323 324 325 326 327 324 328 328 327 324 319 321 322 325 324 314 314
326 322 324 323 324 324 320 319 319 322 321 319 319 320 322 323 323 322 321 323 323 326 326 326 325 322 320 325 321 321 323 317
325 323 323 324 323 326 324 325 322 320 319 318 317 318 319 321 321 321 320 321 320 324 327 326 326 325 320 325 321 319 318 318
323 323 323 323 323 324 325 325 325 320 322 318 318 316 318 319 321 320 318 318 321 321 324 326 321 319 322 322 324 323 324 322
323 322 323 324 323 323 324 324 324 325 323 322 323 320 320 321 320 319 318 319 322 322 321 324 321 324 325 326 323 325 325 324

GFSFLT2_sfc_thetae_078.txt.gz
Theta_e
345 341 339 337 336 335 332 330 329 335 343 343 342 340 340 341 340 340 339 337 336 335 334 333 333 331 328 327 327 330 323 322
344 346 342 339 339 334 332 332 330 334 341 340 338 338 339 339 338 338 338 337 335 333 333 333 331 329 327 327 327 330 321 321
340 342 342 341 341 338 334 335 328 335 339 337 334 336 337 336 335 335 335 335 334 333 331 330 328 327 327 327 327 321 322 322
338 338 339 338 338 337 335 334 334 333 335 335 335 334 334 334 334 333 333 333 332 331 330 328 325 319 320 324 320 323 322 321
338 339 339 337 334 336 333 334 334 333 333 331 330 331 331 332 331 330 329 330 327 326 324 320 318 318 319 320 322 323 321 321
335 335 334 333 332 333 335 334 333 330 329 328 327 327 329 330 328 326 323 323 322 321 319 320 318 318 321 322 320 322 321 321
333 334 332 330 327 326 331 330 331 328 328 328 327 327 327 328 328 321 320 320 320 318 319 320 320 318 321 321 321 322 320 321
334 333 332 329 327 325 323 325 328 326 326 328 327 328 328 328 327 320 321 321 319 318 321 320 319 320 320 321 322 321 320 320
332 332 332 329 327 325 324 324 324 325 325 327 327 327 327 327 326 323 324 322 320 321 321 319 318 319 319 320 321 323 321 320
330 330 330 328 328 326 324 324 324 323 325 326 326 326 327 327 326 325 326 323 323 322 319 317 317 316 316 317 318 319 321 320
328 327 326 327 327 324 323 322 323 323 323 322 322 325 325 325 325 327 328 325 324 320 319 316 316 315 316 316 316 316 318 321
327 326 324 324 325 323 322 321 323 324 324 323 324 324 325 324 324 326 324 323 321 319 318 318 315 315 315 314 314 315 317 317
325 323 322 323 322 321 320 319 321 322 323 323 324 323 323 323 321 322 322 320 317 318 319 316 315 316 312 311 311 313 313 312
324 324 323 322 323 322 322 321 322 322 323 321 322 322 322 322 321 320 319 318 318 320 319 316 316 316 311 310 307 310 313 315
324 324 324 323 323 323 322 322 321 320 321 319 320 321 322 322 322 322 321 320 321 320 320 318 315 315 317 314 309 307 310 313
324 324 323 323 323 322 320 318 316 319 319 321 319 321 321 319 322 322 322 322 321 321 323 321 320 315 316 318 319 317 309 308
323 323 322 323 323 322 321 319 319 320 321 321 320 319 320 321 320 323 322 322 323 323 322 322 320 318 316 317 316 316 316 311
323 322 323 322 323 323 322 321 319 318 319 318 317 318 319 320 321 322 322 322 322 323 324 322 320 319 317 317 315 313 313 312
323 322 321 323 323 322 321 321 320 319 318 318 317 317 317 318 319 319 319 319 320 320 320 319 319 317 317 316 317 318 317 316
322 321 320 323 322 322 322 322 321 321 321 320 318 317 317 318 319 319 318 318 318 318 318 318 318 318 317 317 317 317 318 318

GFSFLT2_sfc_thetae_081.txt.gz
Theta_e
334 335 337 337 335 336 334 333 334 330 328 333 340 342 341 341 341 341 340 339 337 337 336 335 334 332 330 327 328 327 322 322
335 336 334 332 332 333 332 331 331 329 329 330 339 339 340 339 339 338 338 337 336 335 334 333 332 329 327 328 327 326 321 320
332 337 337 332 332 331 333 332 331 331 332 332 335 337 337 336 336 335 336 335 334 334 333 331 329 327 327 327 324 321 321 321
331 332 332 334 336 331 330 331 328 328 329 335 335 334 333 333 334 334 334 333 333 331 330 328 323 318 319 322 320 320 320 321
331 332 331 332 332 330 330 330 328 327 331 332 333 333 332 331 331 330 329 330 326 325 323 319 316 316 316 317 320 320 320 321
332 332 330 331 330 328 328 330 330 329 331 331 329 329 329 329 327 327 326 322 320 318 317 316 314 317 318 319 319 319 320 320
328 330 329 326 324 323 326 329 331 330 330 330 328 328 328 327 326 324 322 322 318 316 316 315 315 316 318 318 319 319 319 320
327 329 327 323 323 323 326 328 329 329 328 327 327 329 329 326 321 319 319 319 316 316 317 315 314 316 317 318 319 319 319 319
326 326 327 323 321 323 324 326 327 327 327 326 327 328 328 324 319 317 317 317 314 317 318 317 316 317 316 318 319 318 318 319
326 329 326 325 321 321 323 325 325 326 326 326 327 327 327 325 318 319 318 319 315 318 318 315 314 315 314 315 317 318 317 318
324 325 326 325 323 321 322 323 324 324 326 325 325 326 326 326 321 322 320 320 317 319 317 315 314 313 314 313 314 317 317 318
323 324 326 325 323 322 321 322 323 324 324 324 325 325 325 325 324 324 323 320 319 317 316 314 314 315 316 314 313 314 316 316
321 322 323 323 321 319 318 319 321 321 321 321 322 323 323 324 323 323 323 321 317 316 314 313 311 313 310 309 309 310 312 313
319 321 322 323 322 321 320 320 321 321 321 319 322 321 321 320 321 321 320 318 316 314 315 314 312 313 309 308 303 307 309 310
319 320 321 322 323 322 321 321 321 320 320 319 320 320 321 321 320 320 318 319 316 316 316 314 312 313 312 311 306 304 306 309
320 321 320 321 323 321 319 318 316 319 319 318 319 320 320 320 319 319 317 317 316 317 318 316 315 311 313 317 315 313 306 305
319 321 322 322 322 322 320 318 319 319 320 317 317 318 319 317 319 318 317 318 318 318 318 318 318 314 311 312 312 312 312 309
319 319 320 321 322 322 320 319 318 317 317 317 317 317 315 316 319 320 320 319 319 319 320 320 319 317 315 315 313 311 311 309
318 317 317 321 321 322 321 320 319 318 318 317 317 316 315 317 317 319 320 321 320 321 320 320 319 317 317 316 316 315 316 314
318 317 318 318 321 321 321 321 320 319 319 319 318 318 317 317 318 319 320 320 320 319 319 319 318 317 315 315 315 316 317 317

GFSFLT2_sfc_thetae_084.txt.gz
Theta_e
333 335 338 338 337 337 335 336 337 335 336 335 337 337 338 340 340 341 341 340 340 339 338 335 334 332 331 329 328 327 321 321
331 334 336 332 332 335 334 335 333 332 335 334 337 337 337 339 338 340 339 338 338 337 335 334 332 330 329 328 327 327 320 318
332 334 334 331 329 331 333 333 332 331 333 333 332 330 335 336 336 337 337 336 336 335 333 331 329 330 329 328 325 320 320 320
330 334 333 332 331 329 328 330 329 327 328 327 330 334 334 336 335 335 335 334 333 332 331 329 323 320 324 325 320 320 320 320
328 330 331 332 332 328 329 326 327 325 327 329 333 333 334 332 332 331 331 331 327 326 324 317 316 317 319 319 319 320 320 320
328 329 328 327 330 330 328 328 325 325 331 332 332 331 330 330 329 328 326 322 320 318 315 314 314 316 319 319 319 318 319 319
327 327 327 329 327 327 328 328 327 329 330 331 331 329 329 328 327 326 324 322 318 314 313 313 314 316 319 318 317 318 318 319
325 324 325 323 321 324 327 330 328 329 330 329 330 329 327 326 325 323 322 320 318 316 315 312 313 315 318 318 318 318 318 318
324 322 321 319 319 322 326 328 329 328 329 329 329 328 326 323 321 319 320 317 316 316 314 313 313 315 317 317 317 317 317 318
324 325 320 319 320 323 324 326 328 328 327 327 328 328 326 321 318 317 318 313 314 314 315 313 314 314 315 316 316 317 317 317
325 323 321 320 320 322 323 325 324 326 326 326 327 328 325 319 317 317 317 312 313 316 314 314 313 313 314 315 315 315 316 318
325 325 324 321 320 321 322 323 324 325 325 325 326 327 326 321 318 319 319 312 314 316 314 314 315 314 315 314 315 315 314 315
322 324 324 322 319 318 318 319 321 322 324 325 326 326 326 323 321 320 320 315 316 316 313 314 312 313 309 308 308 313 313 313
320 322 324 322 321 320 320 320 321 322 322 323 324 324 324 324 321 322 320 320 316 315 312 310 310 311 310 306 303 306 310 311
319 320 323 323 322 321 320 320 320 319 319 319 321 322 322 324 322 321 321 319 316 314 313 313 310 311 311 309 304 302 304 307
318 320 321 322 322 320 318 317 314 317 319 319 320 320 319 320 321 320 320 318 316 315 315 313 312 310 310 315 313 311 303 302
317 320 320 320 322 321 319 318 319 320 317 313 317 318 319 318 319 318 318 321 317 317 315 314 313 312 310 312 311 312 310 307
318 318 318 319 321 321 320 318 318 318 317 315 316 317 317 317 318 318 317 319 319 317 317 316 316 313 312 313 312 311 309 308
318 318 317 319 321 321 320 319 318 318 318 316 314 315 315 316 316 318 317 318 319 318 318 317 317 315 314 313 314 314 314 311
317 317 317 318 320 320 320 320 319 319 319 318 316 315 317 318 317 318 319 319 319 319 318 318 318 317 315 314 315 315 315 314

GFSFLT2_sfc_thetae_087.txt.gz
Theta_e
337 338 339 340 339 339 336 338 336 335 335 336 338 336 336 337 339 339 341 340 340 340 339 335 335 334 332 330 328 327 321 322
331 333 336 336 333 336 335 334 335 336 336 335 336 336 335 336 337 337 338 340 339 338 336 333 334 332 330 328 327 326 319 320
328 334 334 333 330 332 335 336 334 334 335 336 333 331 335 333 334 335 337 337 337 335 333 331 332 330 329 328 325 319 319 319
329 329 330 331 331 328 326 329 328 328 330 331 333 331 333 333 333 334 335 335 335 333 330 330 328 325 325 324 319 319 319 319
327 329 331 329 329 327 327 328 328 326 325 326 327 328 332 333 333 333 332 332 329 327 322 320 322 321 318 317 319 319 320 321
326 327 330 331 329 327 326 326 326 324 327 326 326 329 329 331 331 330 328 327 323 320 315 315 317 318 318 317 319 319 319 320
325 326 326 327 329 328 327 326 324 325 329 328 328 329 329 331 329 328 325 323 321 317 313 314 316 317 317 317 318 319 317 319
325 326 326 325 326 328 328 327 325 326 329 329 330 331 330 329 327 324 323 322 318 316 313 313 315 317 316 317 318 318 317 316
325 323 321 321 321 325 328 328 327 328 328 329 330 330 328 327 325 322 321 321 318 317 312 312 314 317 315 316 317 317 316 317
323 324 318 317 320 322 325 328 328 328 329 329 328 328 327 325 322 320 319 317 316 316 313 312 314 316 314 316 316 317 316 316
323 319 317 318 319 320 323 326 327 328 327 328 328 327 325 322 320 318 315 314 315 315 313 313 313 313 314 314 314 314 315 317
324 319 317 318 320 322 322 324 324 327 326 327 328 326 323 319 318 317 316 312 314 313 312 312 312 314 315 314 313 313 314 314
322 321 319 318 318 318 319 319 322 323 325 326 327 326 322 318 318 316 315 312 314 314 312 311 310 312 309 308 309 312 312 313
322 321 319 318 319 318 319 320 321 322 323 325 326 326 322 319 319 316 315 312 315 313 312 310 310 311 310 306 304 307 309 312
320 321 321 319 319 320 320 318 320 319 319 322 322 325 324 321 320 318 317 313 315 314 313 311 309 310 312 308 302 302 305 308
320 321 320 321 320 318 318 316 316 318 319 320 321 321 323 322 320 320 319 318 315 315 314 314 312 310 309 312 311 309 304 302
318 319 320 320 320 320 319 318 317 318 319 318 319 319 320 322 321 320 320 319 317 315 313 312 312 311 308 311 311 311 309 306
317 318 320 320 319 320 319 318 317 316 316 316 317 318 318 318 320 319 319 319 316 316 315 313 312 312 312 312 311 310 309 308
318 317 316 319 321 320 319 319 318 317 316 315 316 316 316 316 316 318 318 319 319 317 317 315 314 312 312 311 313 314 313 312
317 316 316 316 318 319 320 320 319 317 317 316 314 315 316 315 314 317 317 318 319 318 317 317 317 315 313 312 313 314 314 314

GFSFLT2_sfc_thetae_090.txt.gz
Theta_e
340 342 344 342 340 340 337 337 337 338 338 337 337 337 338 339 340 340 341 341 341 341 339 337 336 335 333 331 329 328 322 325
336 337 340 340 340 337 337 336 335 335 336 337 335 334 334 338 338 337 338 340 340 339 336 336 334 332 330 329 328 325 319 321
333 335 335 335 335 337 337 337 335 335 336 336 333 332 333 333 335 336 338 336 337 336 334 334 332 330 330 328 324 318 319 319
330 333 332 330 333 329 329 331 330 329 330 330 334 330 329 331 332 333 335 335 335 332 332 332 329 325 325 324 319 319 319 320
330 329 330 327 329 327 324 326 327 326 327 331 331 328 331 329 329 332 334 334 329 327 329 326 324 323 318 318 318 319 319 320
328 331 330 329 329 328 327 327 326 326 326 327 330 327 330 329 329 331 332 330 324 320 320 322 321 319 317 317 318 318 318 320
325 329 330 330 328 327 326 325 325 324 326 325 327 329 328 329 330 331 328 327 322 316 316 319 317 317 317 317 317 318 318 320
324 327 327 328 329 327 327 326 325 324 326 327 326 328 328 328 329 328 325 325 322 316 316 317 316 317 315 316 317 317 317 319
326 327 323 325 326 326 327 327 326 325 326 328 327 327 328 328 328 325 324 321 316 313 313 315 315 316 315 315 316 317 317 318
327 327 322 319 318 325 328 328 326 326 327 329 329 329 329 328 325 323 323 320 317 313 313 314 315 315 314 315 315 316 316 317
324 323 321 321 322 322 325 327 327 327 328 328 328 327 327 325 323 320 320 319 318 314 313 315 314 314 314 314 314 315 315 317
324 321 319 319 319 320 322 324 325 327 327 328 327 325 324 322 320 317 318 317 316 314 313 314 315 315 315 312 312 313 315 315
323 319 318 318 318 317 318 319 322 324 326 327 327 325 321 319 318 316 315 315 314 313 311 312 311 314 311 308 309 311 313 313
323 320 317 317 318 318 316 321 322 323 324 325 327 324 321 319 317 316 313 313 314 312 312 310 310 314 309 307 304 308 311 312
322 321 319 318 318 318 318 320 320 319 321 323 325 323 321 320 318 316 313 313 313 313 311 310 311 311 314 309 303 304 307 310
322 321 319 318 319 318 317 316 315 318 320 321 322 322 320 320 318 316 314 313 314 314 314 311 312 309 310 311 311 309 306 303
321 321 320 319 318 318 316 315 314 319 319 319 319 321 320 320 318 316 316 315 315 315 313 312 313 312 310 311 311 310 309 305
319 319 319 319 318 318 316 316 314 317 317 317 318 318 320 320 320 318 316 315 315 315 315 313 313 313 313 312 311 309 308 308
318 317 317 318 318 317 317 317 317 316 317 317 317 317 317 319 319 318 317 313 313 316 315 314 313 312 312 311 312 312 313 311
316 316 316 318 317 317 317 316 317 318 317 317 316 317 318 318 319 319 318 318 317 317 316 315 314 313 312 312 311 314 314 313

GFSFLT2_sfc_thetae_093.txt.gz
Theta_e
342 345 345 342 341 340 340 341 340 341 340 341 341 339 339 340 340 341 341 341 342 342 340 339 338 336 334 332 331 332 335 334
340 344 346 348 346 338 338 338 338 338 339 338 335 335 336 337 336 339 339 339 341 340 338 337 336 333 331 330 329 329 333 333
339 340 342 345 341 339 338 337 336 336 337 336 333 336 336 336 334 335 338 337 338 338 336 335 332 331 330 329 328 330 331 330
336 338 341 342 340 341 337 336 336 336 338 338 338 338 338 336 337 335 336 334 336 335 334 332 332 333 330 327 329 329 328 329
333 334 337 341 337 338 335 335 334 334 334 336 338 338 338 337 338 340 338 334 333 333 333 334 333 331 329 329 328 329 328 328
333 333 332 336 337 336 334 332 332 332 335 337 337 335 335 335 334 337 337 333 329 331 333 332 331 329 328 328 328 326 326 327
332 333 332 332 331 332 332 333 331 333 331 333 336 331 332 335 332 335 331 328 325 328 329 330 329 327 326 327 326 327 327 327
335 331 334 331 329 329 330 330 329 329 330 330 334 332 334 334 332 332 332 326 323 326 329 328 327 327 326 326 326 326 327 327
331 331 333 331 329 329 329 330 330 328 328 331 332 333 333 333 329 329 330 328 322 324 326 326 326 325 325 325 325 326 325 326
332 331 328 329 329 329 329 329 329 330 330 330 329 329 330 328 328 327 326 321 319 321 324 323 324 324 323 324 323 324 325 326
331 330 326 327 327 328 329 329 328 330 331 330 330 329 328 328 327 326 324 320 319 322 322 323 322 322 322 322 322 323 325 325
332 328 326 327 327 325 327 329 329 330 329 329 329 327 327 328 325 324 324 321 320 322 321 322 322 322 319 320 322 323 324 324
330 324 323 323 320 320 322 323 325 328 329 331 328 325 323 321 322 322 324 322 321 322 320 321 320 322 319 318 319 321 321 322
327 322 322 322 322 323 323 322 324 326 327 327 326 323 322 322 322 321 322 320 317 318 321 319 320 320 318 316 311 315 317 320
325 323 322 322 322 322 323 324 323 323 325 326 325 323 322 321 322 320 320 320 317 319 320 320 315 319 320 318 312 311 313 317
325 323 322 322 321 320 322 319 318 322 323 324 324 323 322 320 318 316 316 318 317 317 318 320 320 316 318 317 320 318 313 309
325 323 322 320 320 320 320 319 320 323 323 322 323 323 322 320 318 316 314 316 316 315 316 319 320 320 317 316 316 315 316 314
324 323 321 321 319 320 321 318 318 322 321 320 320 319 320 319 318 317 315 314 316 316 316 316 318 321 319 319 315 314 313 314
323 322 319 319 319 319 319 318 320 322 321 320 320 318 318 318 318 317 315 314 314 314 316 315 317 317 319 319 319 319 318 317
321 320 319 319 319 319 319 319 322 323 322 321 321 319 319 320 319 317 315 314 313 313 317 315 317 317 316 317 318 320 319 319

GFSFLT2_sfc_thetae_096.txt.gz
Theta_e
350 349 346 342 342 342 342 343 343 343 344 344 344 342 342 342 341 341 341 338 338 340 340 339 338 337 335 334 334 336 337 336
347 347 347 350 350 339 340 341 341 341 341 339 338 339 339 340 339 339 340 341 340 340 339 337 336 335 333 332 332 334 336 336
345 345 349 351 350 346 340 340 339 339 339 336 335 343 342 339 337 338 340 339 338 337 337 336 333 333 332 331 331 336 335 333
343 344 348 349 348 349 347 346 344 345 345 342 343 344 342 338 336 334 335 335 336 335 335 333 333 336 335 331 334 335 335 334
341 342 345 348 345 346 343 342 342 341 343 342 342 341 339 339 339 340 340 337 340 333 332 336 337 337 333 334 334 335 332 331
340 340 340 346 346 342 341 340 338 337 338 341 340 340 339 339 338 340 340 341 338 336 332 336 337 336 335 334 333 332 331 330
340 339 339 344 344 341 340 339 338 339 336 338 338 338 337 337 339 340 339 338 336 335 331 334 335 334 333 332 332 331 330 329
342 336 338 341 341 340 337 337 340 339 337 336 338 338 337 337 338 338 337 335 334 331 333 334 334 333 332 332 330 330 329 328
342 339 339 337 339 338 339 335 338 337 334 334 335 339 338 336 337 335 332 330 332 330 332 333 332 331 331 331 330 328 327 327
339 339 336 336 338 334 334 334 334 335 335 334 334 336 336 335 333 335 332 328 329 326 329 329 330 329 329 329 327 326 327 327
338 340 336 336 336 335 334 336 332 333 334 334 335 334 334 332 331 331 326 325 325 326 329 330 328 327 327 328 326 326 327 326
337 339 336 334 334 333 332 333 331 334 335 334 334 334 331 329 329 327 324 321 321 323 327 329 330 327 324 324 325 327 327 325
335 337 334 331 329 328 328 328 329 331 335 333 333 330 328 328 327 325 323 321 320 323 327 327 326 328 322 321 322 324 324 324
333 336 331 331 333 333 330 328 329 331 332 331 332 329 324 326 326 324 323 321 320 322 327 325 324 326 321 320 314 317 321 324
331 335 329 330 335 333 329 329 328 328 329 328 324 323 323 323 324 324 323 322 321 325 327 325 322 324 326 321 314 312 318 322
331 333 326 329 333 331 330 326 323 326 325 329 326 326 323 323 321 322 322 324 325 324 326 328 325 321 324 325 324 322 315 313
332 329 326 327 329 333 329 328 326 326 327 328 327 325 325 321 322 323 324 324 324 327 327 328 326 325 321 321 321 322 323 317
331 325 324 326 329 330 330 328 325 324 325 326 322 322 321 321 319 319 321 323 322 322 321 321 321 324 323 324 321 318 318 316
328 323 322 324 326 328 327 327 325 326 324 324 322 321 320 318 318 317 317 318 318 318 318 317 319 320 321 323 323 322 320 318
325 323 324 324 325 325 324 327 321 326 325 325 324 322 321 320 319 318 317 318 318 318 317 317 319 320 323 325 323 324 323 321

GFSFLT2_sfc_thetae_099.txt.gz
Theta_e
352 349 346 342 343 344 344 345 345 344 345 345 345 344 343 344 343 342 342 341 341 338 337 337 337 336 335 335 335 336 338 337
351 351 349 349 349 341 342 342 343 342 342 341 341 340 341 341 340 341 340 339 339 337 337 338 337 335 333 332 333 333 336 336
350 350 350 350 350 347 342 342 341 340 341 339 338 347 343 340 338 339 340 338 338 337 338 336 334 334 332 331 333 337 334 332
347 349 349 349 347 350 349 347 346 346 345 346 349 346 345 341 338 337 338 338 337 337 335 334 333 335 337 332 336 336 333 332
346 346 349 348 347 348 347 347 345 346 346 346 346 342 347 345 341 337 337 335 337 336 335 333 333 334 338 336 337 333 332 332
345 346 347 348 346 345 345 345 345 344 345 346 345 343 343 341 339 341 343 343 336 337 336 333 331 334 336 337 333 333 329 332
345 345 344 347 345 343 343 342 342 342 340 343 344 341 341 341 341 342 341 340 340 338 333 333 330 332 336 333 332 331 330 331
346 343 342 346 344 345 342 343 343 343 339 339 341 342 341 340 339 339 340 339 339 333 332 331 330 331 334 332 330 329 329 330
344 344 341 344 344 343 341 340 341 340 340 342 338 339 339 338 340 339 338 339 336 335 332 330 329 333 331 330 329 329 327 327
341 343 339 340 343 342 340 339 340 339 340 341 339 340 337 334 335 336 339 337 336 332 332 328 328 331 328 328 327 326 326 327
337 344 342 338 340 341 340 340 339 338 338 338 339 338 338 338 336 336 338 333 333 330 331 328 326 328 326 326 326 323 325 324
335 341 343 340 338 338 335 335 335 337 338 335 335 337 336 336 336 332 332 330 330 327 328 327 328 326 323 324 325 327 327 326
333 339 342 338 334 332 332 332 332 335 334 336 336 336 336 334 330 327 326 324 324 326 328 324 324 329 323 323 324 327 325 325
328 334 339 338 333 334 335 333 333 336 335 334 335 335 335 331 328 326 324 323 322 323 324 324 327 327 322 319 314 317 322 323
324 330 336 338 336 336 336 335 332 332 331 333 334 334 334 329 326 325 323 323 321 322 324 323 322 326 325 320 313 311 316 321
327 329 334 336 338 336 334 330 327 329 331 330 331 330 325 325 325 325 323 322 321 323 326 324 325 322 325 324 324 321 314 313
329 330 333 334 337 337 334 332 331 330 329 328 327 325 325 323 323 323 322 322 322 323 324 326 327 324 323 322 324 323 323 318
329 330 334 333 333 336 334 333 331 327 326 326 327 325 322 322 324 322 322 322 323 324 328 327 326 325 325 326 322 320 318 318
327 331 330 330 329 334 335 334 331 328 327 325 324 322 321 321 321 321 322 323 323 324 324 324 327 326 325 324 323 322 323 321
327 330 327 326 327 333 334 334 330 328 327 326 326 322 322 321 320 319 319 321 322 321 320 319 320 320 320 321 321 322 323 323

GFSFLT2_sfc_thetae_102.txt.gz
Theta_e
346 345 344 344 343 344 344 344 345 344 345 345 346 345 344 343 343 343 342 341 341 341 340 338 337 337 335 334 332 334 335 335
348 348 345 345 345 341 342 343 343 342 344 343 342 342 342 342 341 342 342 342 341 340 339 337 337 336 335 332 331 332 333 333
351 350 347 348 347 344 342 342 342 341 342 341 339 343 342 341 340 340 340 339 338 337 337 336 335 334 334 334 331 332 332 332
348 349 348 350 345 345 345 345 343 343 344 342 344 343 341 340 338 338 338 337 337 336 336 334 334 333 332 333 331 332 330 331
344 346 349 349 345 347 346 345 344 343 344 344 343 340 340 338 336 337 335 336 335 335 333 332 332 332 331 331 333 330 331 331
344 344 346 347 348 347 345 343 343 341 344 344 342 340 339 337 336 334 335 335 334 332 332 332 330 331 331 331 330 330 330 330
342 343 344 346 348 343 344 343 342 340 343 343 341 339 338 337 336 336 335 335 333 332 331 331 330 330 332 331 331 330 329 328
343 342 343 345 345 343 342 341 341 341 339 340 342 339 337 336 334 334 336 334 334 333 332 330 328 330 330 330 329 329 329 327
342 342 341 342 344 344 341 339 341 340 339 339 340 339 339 336 334 334 335 334 334 332 330 330 328 329 329 329 328 325 325 326
343 343 340 340 343 343 339 338 339 339 339 338 337 337 337 336 334 334 333 334 333 330 327 327 327 327 327 327 324 324 322 324
341 342 339 338 340 342 341 338 337 337 338 338 338 337 336 335 333 333 332 332 331 330 328 325 325 325 326 326 323 320 321 324
342 342 339 338 338 340 338 338 336 336 336 335 335 337 336 335 333 332 331 331 330 329 327 327 326 325 327 325 320 319 319 319
336 341 341 337 334 333 332 332 332 332 335 335 334 334 333 333 331 330 331 329 328 329 327 325 323 325 321 320 321 322 320 320
327 338 341 339 335 334 332 331 332 332 332 334 334 333 333 332 330 328 329 327 327 327 325 323 323 324 319 315 311 315 318 320
322 330 339 339 336 334 333 333 332 330 332 331 332 332 332 331 329 327 326 325 324 324 324 322 320 322 322 316 311 308 313 318
324 323 330 339 335 332 331 329 327 329 330 330 331 331 331 330 328 327 325 325 323 324 325 323 322 318 321 321 318 317 311 309
325 324 325 337 334 334 332 331 330 330 329 329 328 328 327 325 325 325 323 324 323 323 323 323 323 320 319 318 317 318 316 312
326 327 325 336 335 334 333 332 329 328 327 326 325 323 325 323 323 323 325 323 322 322 323 323 323 322 321 320 318 315 314 313
323 324 325 334 334 334 334 333 332 329 325 325 323 321 320 321 322 321 321 322 322 324 324 323 323 322 321 320 320 319 318 317
320 317 326 332 331 332 334 333 332 328 325 327 325 322 320 321 322 322 322 322 323 323 324 323 323 322 321 320 319 318 319 317

GFSFLT2_sfc_thetae_105.txt.gz
Theta_e
339 341 343 343 343 343 342 344 344 344 345 345 346 344 343 343 343 343 341 339 338 340 337 338 339 338 337 334 333 334 334 334
337 337 339 338 338 341 341 342 342 342 343 342 341 342 342 342 342 342 339 338 338 341 339 337 336 335 335 333 332 332 334 333
339 338 338 338 338 340 341 342 341 340 341 340 338 340 340 340 340 340 339 339 340 339 337 336 334 334 333 333 332 330 332 332
341 339 339 340 342 337 336 339 336 336 338 337 338 337 338 339 338 338 339 338 337 337 336 334 333 330 332 333 330 330 330 331
340 340 340 341 341 337 338 337 335 335 336 337 337 336 335 335 336 336 336 335 333 333 332 330 329 329 330 329 331 330 329 330
339 339 339 339 342 340 339 338 336 335 335 337 334 334 333 332 334 334 332 332 330 330 329 327 327 328 328 329 330 329 328 329
339 339 339 340 341 341 339 336 337 336 336 337 336 334 333 332 331 334 332 332 330 329 328 328 326 327 329 331 330 330 329 329
339 339 339 339 338 337 336 338 336 335 335 335 335 333 334 333 332 333 333 331 330 330 329 327 326 326 327 330 330 329 328 328
338 338 338 339 337 336 334 335 335 333 333 338 334 333 333 332 331 330 331 330 329 329 328 327 325 327 327 329 329 329 327 327
338 340 338 337 336 336 334 333 333 334 333 333 334 333 332 331 330 330 331 329 330 328 329 326 324 325 326 327 328 327 326 326
337 338 336 336 335 336 333 332 332 335 335 334 334 333 332 330 330 331 330 328 329 328 326 327 323 324 326 326 326 324 324 325
338 337 335 335 336 334 333 332 330 330 333 334 334 334 333 330 328 328 327 328 327 328 325 325 324 323 326 326 325 322 322 321
337 335 334 333 333 330 331 329 328 327 329 332 333 333 332 331 329 327 326 326 326 326 325 322 321 323 322 321 320 320 317 320
336 335 333 333 333 333 330 332 330 331 328 328 330 331 331 330 328 327 326 327 326 326 325 323 323 324 320 317 312 315 317 317
333 336 333 333 332 332 328 328 329 328 329 328 327 328 329 328 326 326 327 328 327 327 326 324 320 323 322 316 310 308 311 315
316 334 335 333 332 330 327 326 325 327 328 328 326 328 326 328 326 325 327 327 326 326 326 324 323 320 321 322 317 316 310 307
316 318 326 334 331 330 328 326 326 326 327 328 325 324 326 326 328 326 325 325 325 325 325 324 323 321 320 318 316 316 315 311
311 313 317 328 331 330 328 326 326 324 325 323 322 323 322 324 324 324 325 324 324 324 325 324 322 322 322 319 317 314 313 311
306 307 310 313 330 329 329 328 327 325 324 323 322 322 321 321 321 321 321 323 323 324 324 323 323 321 321 319 320 318 318 315
300 302 304 309 326 329 329 329 327 327 325 324 322 321 320 320 320 320 321 323 322 323 323 322 323 322 321 320 320 319 319 317

GFSFLT2_sfc_thetae_108.txt.gz
Theta_e
339 340 343 342 341 342 342 344 346 346 345 345 346 344 343 344 341 338 339 342 341 338 338 338 339 339 337 335 334 336 333 334
336 337 338 338 340 339 341 341 341 342 344 343 342 341 342 342 340 339 340 341 339 338 336 337 337 336 335 333 332 334 332 331
334 335 335 335 336 340 341 342 341 340 342 341 338 341 339 340 339 337 338 337 338 338 337 335 335 334 334 332 332 334 333 331
334 334 335 334 339 336 335 338 336 335 337 338 339 337 337 339 338 337 337 337 337 338 336 334 333 329 331 333 332 332 332 331
336 335 336 336 337 335 335 333 332 333 334 336 335 336 337 337 338 337 335 336 335 334 332 329 327 327 330 329 331 330 331 331
337 337 337 338 337 335 335 334 332 332 333 335 334 333 332 333 335 335 334 331 328 328 326 326 326 326 328 329 330 330 330 331
338 338 337 338 337 336 336 335 334 333 334 335 334 332 331 332 332 333 333 330 329 327 325 325 325 325 326 328 328 330 330 331
339 338 339 339 339 337 336 336 335 334 335 335 332 333 331 331 331 331 331 331 329 328 326 325 324 325 324 328 329 330 329 329
338 338 339 337 339 338 336 336 335 333 335 334 333 333 332 330 330 329 329 331 330 327 325 325 323 325 324 326 328 328 328 328
338 339 337 338 337 337 336 336 335 333 334 336 333 332 332 330 329 329 330 328 328 327 327 327 325 325 324 324 325 327 327 328
337 337 335 338 337 336 334 334 333 333 332 332 335 332 331 331 330 329 329 328 327 327 328 328 325 324 324 323 325 325 325 328
336 336 335 337 335 333 331 331 331 333 332 331 333 333 331 330 329 328 328 327 328 328 328 327 324 324 324 324 323 323 324 325
334 334 334 335 333 331 329 329 328 330 332 332 332 333 331 330 328 327 326 326 327 327 326 324 322 324 322 321 321 320 320 322
333 334 333 334 336 335 332 332 329 329 330 332 332 331 331 331 328 327 325 324 324 325 325 322 322 324 320 319 314 315 317 320
330 331 332 334 335 333 327 326 326 325 326 327 329 331 330 330 329 328 325 326 325 326 325 323 320 323 322 317 310 309 313 315
313 329 332 332 329 331 328 328 325 328 328 327 328 329 328 328 326 326 325 327 327 327 327 325 321 319 321 321 316 315 310 309
308 309 317 322 329 330 328 328 328 324 325 325 327 327 327 328 325 325 325 327 327 326 325 325 323 322 321 319 316 315 314 313
303 303 306 310 316 330 329 327 324 323 324 324 325 326 326 327 326 326 326 325 324 325 325 325 324 323 322 320 317 314 312 312
300 299 301 304 305 316 329 327 325 324 324 324 323 323 324 325 326 325 324 325 324 325 324 325 324 323 322 320 319 317 317 315
296 297 299 302 303 308 326 329 326 326 325 325 323 323 323 323 323 322 321 322 323 324 323 324 324 322 322 320 319 318 318 317

GFSFLT2_sfc_thetae_111.txt.gz
Theta_e
339 341 343 343 342 343 343 345 345 345 345 346 346 344 343 344 343 343 343 343 342 342 341 341 340 339 337 335 335 335 333 333
336 336 338 338 339 340 341 342 343 343 343 343 342 342 342 341 340 341 341 341 341 339 337 338 339 337 335 334 334 335 333 332
334 336 335 335 335 339 342 343 342 341 342 341 338 340 341 339 335 338 340 340 338 337 336 335 335 335 334 332 334 332 332 332
333 334 334 334 338 335 334 339 338 339 340 340 338 337 338 338 336 337 337 337 336 336 335 334 332 329 332 332 332 333 332 332
331 333 333 334 336 336 332 332 332 333 334 337 335 335 337 336 336 334 332 335 331 333 331 327 326 326 328 328 329 332 332 333
331 332 333 334 334 335 333 332 329 330 333 334 335 334 333 335 336 335 333 333 331 328 327 325 324 325 326 327 329 329 330 332
332 332 333 334 334 333 332 331 330 330 332 334 334 333 332 334 335 334 333 331 328 325 324 324 323 323 324 326 327 329 330 331
334 333 334 335 334 333 333 333 331 330 332 333 333 333 332 333 332 332 332 329 326 326 324 322 322 323 325 327 327 327 329 330
336 335 335 335 335 334 334 334 333 332 332 332 332 332 330 331 331 330 330 329 325 324 322 322 321 323 322 324 326 326 327 330
336 338 336 336 336 335 335 335 334 332 333 333 331 331 330 329 329 329 328 328 327 324 324 324 325 323 320 322 324 325 326 328
336 336 335 335 337 337 335 334 334 332 333 333 331 331 330 329 328 328 327 327 327 325 326 324 324 323 324 323 323 322 325 328
336 336 335 336 335 333 330 332 332 332 332 333 332 332 330 329 328 326 327 326 325 325 324 326 325 323 325 324 324 321 324 326
334 334 334 335 333 331 330 330 331 331 332 332 332 331 329 329 328 326 326 326 326 326 326 326 324 324 321 321 322 321 323 324
325 333 333 335 334 333 333 333 329 331 331 330 331 331 330 329 328 326 325 325 326 326 325 323 323 323 319 319 313 315 319 321
321 329 332 333 333 333 327 327 326 323 329 330 330 330 331 330 328 328 326 327 326 326 325 323 321 322 323 317 311 310 314 317
306 323 332 333 333 333 329 329 327 328 328 331 332 330 329 331 330 328 327 327 327 327 326 325 323 320 321 323 317 315 311 308
302 306 309 312 329 333 330 329 329 324 324 324 328 329 329 329 329 329 328 328 328 327 326 325 324 323 321 320 317 316 316 312
298 300 303 306 308 316 329 328 327 323 324 323 324 326 328 329 328 327 327 327 326 327 327 326 325 323 323 322 320 315 313 312
296 297 299 301 303 306 312 328 324 325 325 325 323 323 323 325 327 326 326 326 327 326 324 324 324 323 322 322 322 319 318 316
294 295 297 299 301 302 306 311 328 325 324 325 324 324 324 323 325 326 326 326 324 323 323 323 324 323 323 323 321 319 318 317

GFSFLT2_sfc_thetae_114.txt.gz
Theta_e
342 343 344 343 343 343 343 344 345 345 346 346 347 345 343 344 344 345 345 344 344 344 342 341 341 340 338 336 335 336 335 336
338 340 341 340 342 341 341 342 342 343 343 343 342 342 342 342 342 343 343 342 343 342 340 340 339 338 336 335 334 335 334 335
336 337 339 337 337 341 343 343 342 341 342 341 338 340 340 340 338 340 340 340 339 338 338 337 336 336 335 334 334 334 333 333
334 336 337 336 338 340 341 343 343 342 340 339 338 338 337 336 335 337 338 337 336 335 334 335 333 330 331 334 332 332 332 332
333 334 335 336 337 337 338 340 339 339 337 337 335 338 337 333 331 333 332 335 331 332 330 328 326 328 328 328 331 332 333 333
331 333 333 334 336 336 336 336 334 335 336 335 336 336 336 336 333 331 330 329 328 328 326 325 324 326 327 327 329 330 331 333
329 331 332 333 333 334 333 334 332 332 333 335 336 335 334 336 335 332 332 332 330 326 324 324 323 324 325 326 327 328 330 331
329 330 331 333 332 332 332 332 329 330 333 336 333 334 334 334 334 333 333 331 326 325 324 323 322 323 323 325 326 327 329 329
329 329 330 331 331 330 331 331 330 329 331 334 332 332 332 333 333 331 332 330 324 324 322 322 322 323 322 324 325 326 327 329
333 332 331 331 332 331 331 331 331 330 331 333 331 331 330 331 331 330 331 329 325 323 323 323 322 324 322 321 324 325 326 328
334 334 332 332 333 333 331 331 331 330 331 332 331 330 329 330 331 330 329 328 327 326 324 322 321 323 323 322 322 322 326 329
335 335 334 333 335 335 334 333 332 332 331 331 330 331 329 328 327 327 328 327 327 326 325 325 321 323 324 324 325 324 325 325
334 334 334 335 334 332 331 330 331 331 332 331 330 330 329 328 327 325 328 327 326 325 324 323 323 324 322 321 323 323 323 326
320 332 333 335 335 334 333 333 333 333 333 331 331 329 329 329 328 326 327 327 326 325 325 324 324 324 319 319 314 316 320 324
309 326 332 333 334 334 328 329 328 329 330 330 330 329 329 328 329 328 327 327 326 326 326 325 321 322 322 319 312 311 314 318
301 312 326 333 335 333 330 329 327 330 331 332 331 329 331 330 329 328 327 328 327 327 327 325 324 319 322 323 319 317 313 308
299 306 307 309 314 333 331 330 329 325 327 330 330 330 330 330 330 329 328 328 328 327 326 325 325 323 321 320 320 317 316 312
298 302 302 304 308 310 325 330 328 325 325 327 328 329 328 330 330 330 329 328 328 327 327 326 325 325 324 323 320 317 314 313
296 298 299 301 304 306 308 312 329 326 325 326 326 327 327 327 328 328 328 329 328 327 326 326 326 324 324 323 323 321 320 318
294 295 297 299 301 304 307 309 311 327 325 326 325 326 326 329 328 328 327 327 327 327 326 326 325 324 323 323 323 323 322 319

GFSFLT2_sfc_thetae_117.txt.gz
Theta_e
348 349 348 343 343 343 343 343 345 346 346 347 348 346 345 345 346 347 347 346 346 345 343 342 342 341 339 337 336 337 344 343
344 345 347 349 350 341 341 342 342 343 345 344 343 343 343 343 343 344 345 345 344 343 341 341 340 339 337 336 335 335 344 342
341 341 343 347 345 346 343 343 342 342 344 342 341 350 348 346 342 341 342 341 341 340 340 339 337 337 337 335 334 343 342 342
337 338 340 342 342 344 346 346 348 348 349 349 351 350 349 346 341 338 339 338 338 338 337 336 337 344 342 336 339 339 340 337
334 336 339 340 341 342 342 344 345 346 348 349 348 346 346 345 344 342 343 338 340 338 338 342 342 343 342 342 341 338 340 338
334 336 336 338 340 339 339 341 341 342 345 348 344 340 341 343 341 342 341 341 340 338 336 337 339 340 340 340 340 337 340 338
334 334 334 335 337 337 337 338 339 339 342 343 344 340 339 342 341 340 339 340 339 338 336 335 335 338 339 338 337 339 339 340
335 334 333 335 335 336 336 337 338 338 339 341 343 341 339 338 339 339 339 339 335 337 336 335 334 336 336 337 336 338 339 339
335 336 337 335 334 335 334 335 338 341 339 340 341 340 337 338 338 338 339 338 334 337 336 336 333 333 334 334 335 336 336 336
336 335 336 336 335 334 334 336 339 340 339 337 337 339 339 337 336 336 339 334 333 335 332 332 333 332 331 332 333 334 335 336
337 337 335 337 337 337 337 337 338 339 339 336 335 338 339 337 335 335 335 334 331 332 329 331 329 331 330 331 332 332 332 333
339 337 337 337 337 336 336 335 336 337 338 338 336 337 338 337 335 334 333 331 329 331 329 331 332 332 327 327 329 330 332 331
337 337 336 335 334 332 330 329 331 332 337 338 336 335 336 337 333 332 331 330 329 330 329 328 328 332 327 324 326 328 327 328
335 338 338 335 335 335 336 334 334 333 334 335 336 337 335 335 334 330 330 329 329 328 328 325 326 328 322 321 316 320 323 327
313 332 339 338 337 336 336 335 335 333 332 332 333 337 336 336 334 333 330 330 328 328 327 328 323 325 326 322 315 313 318 322
310 317 335 337 336 336 333 332 329 332 333 333 332 334 335 336 334 333 332 331 330 328 328 329 328 324 324 325 325 321 315 313
304 309 309 313 328 335 332 333 334 334 334 332 333 333 334 335 334 332 332 331 331 330 329 328 330 329 325 323 325 323 322 315
301 305 305 307 311 314 328 333 333 330 332 331 332 333 332 334 334 333 333 333 333 333 331 330 330 329 326 325 323 320 317 316
298 301 301 303 305 308 310 312 320 330 331 332 330 330 330 332 331 331 332 332 332 333 332 331 329 327 326 325 325 324 326 322
293 297 298 300 304 305 309 310 312 314 329 331 333 330 331 332 331 332 331 330 330 331 330 329 329 329 328 326 326 329 327 323

GFSFLT2_sfc_thetae_120.txt.gz
Theta_e
355 354 351 344 344 344 343 344 346 347 347 348 349 347 346 347 347 348 348 348 348 346 344 343 343 342 340 338 337 339 346 345
354 355 354 354 353 342 342 343 343 344 345 345 344 344 345 345 345 346 347 346 345 344 343 342 342 340 339 337 335 336 346 344
352 352 350 353 353 350 344 343 343 343 345 343 343 351 351 349 344 343 344 343 343 342 341 340 339 338 337 335 336 346 346 345
347 348 346 349 346 351 352 350 349 350 350 352 351 351 350 346 343 340 341 340 340 340 339 337 338 345 344 338 345 345 346 345
342 342 343 343 348 346 347 347 348 349 351 351 351 350 350 348 347 345 346 340 344 342 343 344 343 343 342 343 344 344 344 345
341 343 342 342 346 346 347 344 347 347 348 350 350 349 348 347 345 344 345 344 343 343 342 343 343 343 343 342 343 343 342 344
339 342 341 339 346 344 344 344 345 346 346 350 350 345 346 346 345 343 343 342 343 342 341 340 341 341 341 341 341 342 342 344
338 341 342 340 343 344 343 343 344 344 344 347 351 346 345 346 344 343 342 342 343 342 341 339 338 339 339 340 339 340 341 341
330 341 342 340 339 343 342 341 341 341 343 346 346 346 344 346 344 344 342 342 343 343 341 340 338 338 338 339 339 340 340 340
319 336 341 340 341 341 340 340 340 346 346 344 344 344 344 343 341 340 344 341 340 340 339 338 337 337 336 336 336 337 338 338
316 329 340 340 341 341 341 341 342 342 344 342 342 343 342 341 340 341 344 341 338 339 338 338 335 335 335 335 336 335 335 334
316 320 341 341 342 341 339 339 340 341 342 343 340 341 340 340 340 340 340 339 337 335 335 338 336 335 332 332 334 334 335 335
317 318 335 341 338 336 335 334 337 338 340 342 343 340 340 340 338 338 338 336 334 334 334 334 334 336 331 330 331 332 331 331
319 322 327 339 340 338 336 336 336 337 339 341 343 338 339 339 338 337 335 335 334 334 331 331 332 334 329 327 323 327 328 331
316 326 328 338 338 339 337 338 337 335 336 338 340 341 338 338 339 336 335 334 334 333 331 331 328 330 332 329 322 319 324 329
314 323 330 337 337 337 334 335 332 336 336 337 336 339 340 337 338 337 336 334 334 333 333 331 332 325 329 332 332 328 320 319
307 312 312 316 336 337 334 338 338 339 338 337 336 337 340 339 338 336 335 336 335 335 331 331 332 331 330 328 330 329 329 323
301 306 306 310 315 326 335 333 337 338 336 336 335 335 335 336 340 338 337 335 334 334 333 333 332 332 331 331 329 326 325 323
298 301 302 307 311 313 318 320 326 336 336 336 333 333 331 333 337 337 336 336 335 335 333 334 334 334 334 334 333 331 327 324
294 296 297 301 304 309 312 314 315 317 322 326 337 334 334 335 335 336 336 336 335 339 337 337 337 336 333 332 331 330 329 327

GFSFLT2_sfc_thetae_123.txt.gz
Theta_e
356 355 350 345 344 344 344 345 347 348 349 349 349 347 347 348 349 350 350 349 348 347 345 344 344 343 342 340 339 341 346 346
356 356 354 352 352 343 343 343 344 345 347 347 345 345 346 346 346 347 348 348 347 345 343 343 343 341 340 338 336 339 345 343
355 355 354 354 353 350 344 344 344 344 346 345 343 350 351 350 346 344 346 345 344 343 342 341 340 340 339 337 337 343 344 346
350 353 353 353 349 353 351 349 348 350 350 351 350 349 350 347 344 342 343 342 341 341 340 339 338 344 344 338 343 343 344 346
345 349 350 348 350 348 349 348 347 349 350 353 351 349 353 348 351 346 347 342 344 342 342 344 343 343 342 341 341 343 342 346
332 346 346 346 348 346 347 345 347 346 348 351 352 350 350 348 345 346 348 345 344 342 341 342 343 344 342 344 342 341 340 343
325 339 345 345 347 346 346 347 346 346 347 351 352 349 349 346 347 345 345 344 344 341 343 343 341 342 343 339 340 340 342 341
325 329 346 345 344 350 348 349 346 347 348 348 353 350 350 348 346 344 344 345 344 343 341 339 340 341 340 340 339 341 341 342
319 328 344 346 344 344 346 344 345 344 346 348 351 350 351 350 345 345 344 345 344 343 343 341 339 338 338 339 338 340 340 340
315 317 326 347 345 343 344 343 344 344 345 345 348 349 347 349 345 344 345 343 343 342 341 338 338 337 337 337 337 337 338 338
313 319 323 337 346 344 346 347 343 342 345 344 345 346 346 345 344 344 348 343 343 341 341 340 336 336 335 338 339 337 337 334
313 315 322 326 345 343 342 342 341 341 343 344 346 344 344 344 342 342 344 342 338 341 340 340 338 335 332 333 338 336 337 335
310 313 321 324 340 340 340 338 339 340 340 345 345 343 342 342 341 341 342 341 338 338 339 338 336 339 334 333 334 335 335 335
315 315 317 322 324 341 341 339 339 340 340 344 347 343 341 342 340 339 339 337 337 338 337 335 337 339 332 329 324 327 331 332
312 314 316 320 326 337 337 341 339 337 337 340 344 343 340 340 341 339 338 338 335 337 336 335 332 336 336 329 321 319 324 332
305 309 314 319 325 328 334 335 333 334 337 339 342 345 340 340 340 338 337 336 335 335 337 336 335 328 331 334 336 330 321 319
298 303 312 314 318 326 337 333 338 338 339 339 342 344 342 339 339 338 336 335 335 336 334 335 336 331 328 330 331 332 332 324
296 300 305 307 314 329 340 333 337 333 337 339 339 339 340 343 339 339 338 336 334 335 335 335 334 334 331 332 331 328 326 325
296 298 301 303 309 314 316 333 334 339 330 335 335 333 335 339 341 341 337 336 335 336 334 333 335 332 332 332 335 332 332 328
294 296 298 301 305 308 311 313 321 323 319 321 331 333 334 337 338 339 339 337 336 335 334 333 335 332 333 337 336 335 335 331